GFSMW_sfc_thetae_000.txt.gz
Theta_e
300 300 297 295 294 292 293 293 291 294 295 294 291 290 291 290 290 290 290 289 289 288 287 286 284 284 283 282 282 282 281 281 281 281 282 282 284 284 284 284 283 284 285
298 299 294 292 292 293 292 292 291 292 294 294 294 291 293 290 291 289 287 288 287 287 287 286 284 284 282 282 281 282 281 281 280 280 279 279 280 282 284 283 284 282 283
296 298 292 292 291 290 290 292 291 291 293 293 291 285 284 284 284 284 286 285 287 286 286 285 285 283 283 282 281 281 281 280 280 280 281 278 278 278 281 282 282 281 282
293 293 292 291 292 292 291 291 290 290 292 292 290 289 289 288 289 290 289 287 286 286 285 285 284 283 282 281 281 281 280 281 279 280 281 279 279 277 277 279 280 281 281
292 292 292 292 292 291 289 289 289 289 291 291 291 290 290 290 285 286 287 286 284 285 284 284 283 282 282 281 281 280 280 280 280 280 279 278 278 278 277 276 278 279 279
292 292 291 290 290 288 287 287 287 288 289 290 290 290 290 284 285 283 285 284 283 283 283 283 283 283 282 281 281 280 280 280 279 279 279 279 277 277 277 276 276 276 278
290 290 291 290 289 286 285 285 286 286 287 288 288 289 289 286 286 285 286 284 283 283 283 283 282 281 282 281 281 280 280 279 279 279 278 279 278 279 278 277 276 276 278
290 290 291 289 288 287 285 286 286 285 285 287 287 287 287 287 287 285 286 285 285 285 283 282 282 281 281 280 280 280 279 279 279 278 278 279 279 279 279 278 277 275 276
290 291 291 289 288 287 286 285 285 286 285 286 286 286 286 286 285 283 284 284 285 284 282 282 281 280 280 280 280 280 279 279 278 278 278 278 278 279 279 279 278 276 273
290 290 292 291 289 287 286 285 285 285 285 285 287 287 287 287 286 284 284 283 284 282 281 281 281 280 280 280 280 279 278 278 278 278 278 278 278 278 278 279 278 277 274
288 289 290 291 291 290 288 286 285 285 284 284 285 285 284 285 285 284 284 284 283 282 281 281 281 280 280 280 280 279 278 278 277 277 277 277 277 276 275 276 275 275 275
286 288 288 289 289 290 292 291 288 286 286 285 285 284 285 284 283 284 284 283 282 281 281 281 280 280 280 280 279 278 278 277 277 277 277 276 276 274 273 273 273 273 273
285 286 287 288 288 289 290 289 290 289 288 288 285 284 284 283 284 285 284 283 283 282 281 281 280 280 280 279 280 279 278 278 277 277 276 275 274 272 272 271 271 271 272
283 285 286 287 288 289 289 289 288 288 288 287 285 285 284 284 286 286 285 283 283 282 281 281 281 280 280 280 279 279 278 277 277 277 276 274 273 272 271 271 270 271 270
283 285 286 287 288 288 288 288 288 287 287 286 286 286 286 284 285 285 285 282 282 282 282 281 280 280 280 279 279 279 278 276 276 275 275 274 274 276 273 271 270 270 268
284 286 285 288 286 286 286 286 287 287 286 285 285 286 286 285 283 284 284 281 281 281 281 280 280 279 279 283 284 280 277 277 275 274 274 273 274 276 278 277 276 272 266
282 285 284 284 284 285 287 285 286 286 285 284 285 284 283 283 284 282 281 281 280 281 280 280 279 279 279 284 285 284 278 276 275 274 273 272 273 273 275 278 277 277 277
283 283 282 281 282 283 284 284 286 284 284 283 283 283 282 281 281 279 280 279 279 279 279 279 279 279 279 284 286 284 277 276 275 274 273 273 272 273 274 275 275 275 275
283 281 280 280 281 281 282 283 280 282 283 283 283 282 281 279 279 277 277 278 279 279 280 280 279 278 278 283 286 283 276 276 274 274 274 273 273 275 277 273 271 272 273
280 278 277 278 278 279 281 278 278 279 279 281 282 281 279 277 276 275 274 276 278 278 278 278 278 278 277 283 285 282 275 273 273 273 273 275 274 277 278 272 270 268 271
276 276 276 275 276 279 277 275 276 276 277 277 277 281 280 277 276 277 273 274 275 274 273 274 275 276 276 279 284 284 275 274 273 272 272 273 278 278 280 277 272 271 273
275 275 274 274 275 275 274 273 273 274 274 275 275 277 279 278 276 275 274 274 274 273 271 271 270 272 274 278 284 285 278 277 273 272 272 273 278 279 280 279 277 278 271
274 274 272 272 273 273 272 270 271 271 271 271 272 273 275 279 276 275 274 273 273 272 269 270 270 270 272 274 282 285 281 279 274 274 274 276 279 279 279 280 279 273 266
272 272 270 269 269 271 270 269 269 268 267 267 267 269 270 273 276 274 275 273 272 272 272 271 271 271 270 272 276 281 281 279 274 275 275 276 278 279 273 275 275 268 267
270 270 269 268 267 268 267 267 266 265 264 264 265 265 268 269 274 274 274 273 275 275 273 273 273 271 270 271 277 281 279 276 273 273 273 274 271 269 267 267 266 266 266
268 267 266 265 265 264 263 263 263 262 261 261 262 263 265 267 270 273 273 277 278 278 279 279 276 274 276 277 279 282 282 279 278 272 271 269 268 267 266 265 264 265 265

GFSMW_sfc_thetae_003.txt.gz
Theta_e
300 299 299 299 298 296 296 297 295 300 304 304 301 298 298 300 297 298 297 295 295 293 293 292 290 289 289 289 288 288 288 287 287 288 288 289 289 289 290 290 289 289 289
298 298 296 297 296 296 295 295 294 296 300 302 302 300 300 299 298 296 295 295 294 293 292 291 290 289 288 287 287 287 286 286 286 289 288 286 288 289 289 289 288 287 289
294 295 295 295 296 295 294 294 294 294 298 299 298 290 291 289 291 290 291 292 292 292 292 291 290 289 289 287 287 287 288 286 285 285 290 285 288 286 287 287 288 287 287
294 293 292 295 293 294 294 293 293 292 295 296 295 295 294 292 292 294 293 291 291 291 292 290 289 289 288 287 286 287 287 287 286 285 285 285 287 287 284 285 286 287 286
293 294 293 293 292 291 291 292 292 291 294 294 295 294 294 294 291 293 292 290 289 290 289 289 288 288 287 287 286 285 285 287 287 286 284 284 284 284 285 285 284 285 285
293 295 293 292 292 290 289 290 290 289 291 292 293 293 293 291 290 290 290 289 288 288 288 288 288 288 287 286 286 286 286 286 286 286 285 285 284 283 283 283 283 283 284
292 293 292 291 291 290 289 288 288 288 289 290 291 292 292 290 290 290 290 288 287 286 287 287 287 287 287 286 286 285 285 285 285 285 285 285 285 284 284 283 281 282 283
290 290 290 291 291 291 290 288 287 287 288 288 289 289 290 290 289 289 289 288 288 288 288 286 287 286 285 285 285 285 285 285 285 284 284 284 284 284 284 283 282 280 280
287 288 289 290 291 291 290 289 288 288 288 287 287 288 288 288 288 287 288 289 289 288 287 286 285 285 284 284 284 284 283 283 284 284 283 283 283 284 284 284 284 285 280
285 287 288 289 290 291 291 291 290 289 288 288 287 287 288 288 288 286 286 286 287 286 285 285 285 284 284 284 284 284 283 282 282 283 282 282 282 282 283 283 282 282 283
284 285 287 289 289 290 290 289 290 289 289 289 289 287 287 287 287 285 285 286 286 285 284 284 284 283 283 283 283 283 282 282 282 281 281 281 281 281 281 281 281 281 280
284 285 286 288 289 289 289 288 289 288 288 289 289 289 288 286 285 286 286 286 285 284 284 284 283 283 283 282 282 282 281 281 280 280 280 280 280 279 280 280 279 279 279
283 285 286 286 288 288 288 288 287 288 288 288 287 288 288 288 287 286 287 285 285 284 284 283 283 282 282 282 282 282 282 281 281 281 280 279 279 278 278 278 277 277 277
282 284 285 285 287 286 286 287 287 288 287 287 286 286 286 287 287 287 287 287 285 285 284 284 283 283 282 282 282 282 281 281 281 281 280 279 278 278 277 276 276 276 275
281 282 285 283 284 284 284 286 286 287 287 286 285 285 286 286 286 286 286 287 285 285 284 284 283 283 282 282 281 281 281 281 280 280 279 279 279 280 278 276 275 274 274
280 282 285 282 283 282 283 284 284 285 285 285 284 285 285 284 284 285 284 284 285 284 284 283 283 282 282 285 286 283 281 281 279 278 278 278 278 280 280 280 278 276 272
279 280 283 281 281 281 281 281 282 284 282 283 284 284 284 283 282 283 283 282 283 284 283 283 282 282 282 287 287 286 281 280 279 279 277 276 277 278 278 281 280 279 279
280 280 282 280 279 280 280 280 282 280 280 281 281 282 280 280 281 281 281 281 282 282 282 282 282 282 282 286 287 286 282 280 280 278 278 276 276 277 277 278 277 277 277
280 281 280 279 278 278 278 278 279 278 278 278 278 278 278 277 279 279 280 280 279 280 281 282 282 281 282 285 287 286 283 279 279 278 278 277 276 278 280 277 276 275 275
280 279 277 276 276 276 277 277 276 274 275 276 276 276 275 276 279 279 279 279 278 279 280 279 280 280 281 284 285 287 283 279 278 277 276 278 276 279 281 277 276 274 275
278 277 275 274 274 275 274 274 273 272 274 274 273 272 273 273 275 276 278 278 277 277 277 277 278 277 279 280 284 286 283 278 277 275 275 275 279 280 281 279 276 275 276
276 276 274 274 274 274 273 272 271 273 271 270 269 269 269 270 272 273 275 277 276 276 275 275 275 276 276 278 282 285 287 281 277 275 275 275 280 280 282 279 277 278 276
275 274 272 271 272 272 271 269 270 270 268 266 265 265 266 267 268 269 271 275 276 274 275 274 274 274 275 276 281 282 286 282 277 277 277 277 280 281 282 281 278 277 273
272 271 269 268 268 269 269 267 267 266 264 262 262 263 263 264 265 267 270 272 275 275 274 274 273 274 273 274 275 279 282 281 279 278 277 277 279 280 280 279 278 274 272
269 268 267 266 265 265 264 264 263 262 260 260 260 260 261 261 263 265 267 270 275 276 275 275 275 274 272 273 276 278 280 279 277 275 275 275 276 276 276 275 271 270 269
266 264 263 262 261 261 260 260 260 259 258 258 258 258 259 260 261 262 264 270 274 278 280 281 279 276 279 279 279 280 282 282 279 273 273 273 275 271 272 270 269 268 267

GFSMW_sfc_thetae_006.txt.gz
Theta_e
305 306 306 306 306 307 306 306 306 308 313 313 313 314 314 314 314 314 312 310 307 304 302 301 300 297 297 297 296 296 294 294 295 295 294 294 294 295 295 295 294 293 293
303 303 303 303 302 302 303 303 304 304 309 311 312 313 312 312 312 312 310 309 307 303 301 301 299 297 297 296 295 294 293 294 294 296 295 292 291 293 293 294 292 292 293
300 300 299 299 299 298 299 300 302 302 304 308 309 309 304 305 307 307 307 305 305 303 302 300 299 298 297 296 296 296 295 293 293 295 297 292 294 292 293 292 292 291 292
299 298 297 297 296 296 297 298 299 299 300 304 304 304 302 300 302 302 303 303 303 302 300 300 299 298 297 296 296 295 296 298 293 292 291 293 296 293 289 291 291 291 290
296 295 296 296 296 297 297 296 297 297 298 299 301 301 301 302 302 300 301 301 301 300 300 299 298 297 296 297 296 294 295 296 297 295 291 291 291 292 294 289 288 289 290
295 295 296 296 296 296 295 295 295 294 295 297 298 298 298 299 299 297 298 299 298 297 298 298 298 297 296 295 295 295 295 295 295 296 294 293 291 291 291 291 290 289 288
293 293 293 293 294 294 294 294 294 293 294 294 295 295 296 297 297 297 297 297 296 295 295 296 296 296 296 295 294 293 294 294 294 295 294 294 294 293 293 293 289 287 287
292 292 293 293 293 293 293 293 293 292 293 293 293 294 294 294 295 296 296 296 296 296 296 295 295 295 294 294 293 293 293 292 293 293 294 293 293 292 292 291 289 285 286
289 290 292 293 292 292 292 292 291 291 293 293 293 293 293 293 293 293 294 294 295 295 295 294 293 294 294 293 292 291 291 291 291 292 292 292 291 291 292 292 293 292 285
288 288 290 291 292 292 292 292 292 290 291 292 292 293 293 293 292 292 292 292 293 293 292 293 292 293 292 291 291 291 291 289 290 290 290 289 290 290 290 289 290 290 292
287 288 289 291 291 291 291 290 290 290 289 290 290 291 292 292 292 291 292 291 291 291 291 291 291 291 290 290 290 290 290 288 288 288 288 288 289 288 288 288 288 287 288
285 287 289 288 290 289 289 289 289 289 289 289 289 289 289 289 289 290 291 291 291 291 290 290 289 289 288 289 288 288 288 287 286 287 286 286 285 287 287 287 286 286 286
283 285 288 287 287 287 287 287 288 287 288 288 288 288 287 287 287 287 289 290 290 289 290 289 288 288 287 287 287 288 287 286 287 286 285 285 284 284 285 285 285 285 283
282 283 286 286 286 286 286 286 286 286 287 286 287 286 287 287 286 285 286 287 288 289 288 288 287 288 287 287 287 286 287 286 286 287 286 284 283 284 284 283 284 284 283
281 282 283 286 285 285 284 285 285 285 286 284 285 285 287 287 286 285 285 286 286 286 287 287 286 286 286 285 286 285 285 285 285 285 285 284 284 285 285 283 283 282 282
281 282 283 284 285 284 283 283 283 284 285 283 283 284 285 285 283 283 283 284 284 285 286 285 286 286 285 287 288 286 284 284 283 284 284 283 283 284 286 286 285 283 281
281 282 283 283 285 284 282 282 282 283 284 282 282 282 283 282 281 281 282 283 282 284 283 284 285 285 286 288 288 288 285 284 284 284 283 282 281 282 282 285 285 283 284
282 282 283 283 285 284 282 282 282 281 282 281 280 281 281 279 279 278 279 282 282 282 282 283 284 284 285 287 288 287 286 285 285 284 283 282 281 281 281 281 281 280 281
283 284 284 283 283 281 281 280 280 279 280 279 279 279 279 277 276 274 276 279 280 281 282 282 283 284 285 286 287 287 286 284 284 284 284 283 282 281 283 281 280 279 279
284 283 282 281 280 280 279 278 277 277 276 277 277 278 277 274 273 274 274 276 278 279 281 281 282 283 283 285 285 285 285 284 284 283 282 283 282 283 283 281 280 277 277
282 281 281 279 279 279 278 275 275 274 276 276 275 274 274 272 272 272 273 273 274 275 276 278 280 281 282 283 284 285 284 284 284 283 282 281 283 283 283 283 280 280 279
280 280 278 277 277 276 275 273 272 274 273 272 270 270 269 269 269 268 269 269 270 271 273 276 278 280 281 281 282 284 285 285 284 283 282 281 281 283 282 283 282 282 280
277 277 274 273 273 273 272 270 270 270 268 267 265 265 265 266 266 265 266 267 268 269 271 274 277 278 280 281 282 283 284 284 284 284 283 281 281 282 282 284 282 281 278
273 273 271 269 268 269 268 267 267 266 264 262 262 262 262 262 263 264 265 265 266 267 269 272 275 277 279 280 280 279 280 282 283 284 281 280 280 281 281 281 282 279 276
270 269 267 266 265 266 265 264 264 263 261 260 261 261 261 261 261 262 263 264 265 267 267 269 273 275 276 279 280 279 278 281 282 280 278 277 277 277 278 279 277 277 274
267 265 264 263 263 262 262 262 262 261 260 260 260 260 260 261 261 261 261 265 267 269 270 272 272 273 277 281 281 281 281 281 283 277 276 276 276 277 278 278 275 274 273

GFSMW_sfc_thetae_009.txt.gz
Theta_e
304 303 303 302 302 303 303 305 306 309 311 315 316 318 319 320 321 321 321 319 316 313 310 307 306 302 300 300 300 300 298 299 298 296 296 295 296 297 297 297 296 296 296
301 301 301 301 300 299 300 301 303 306 307 312 314 315 316 318 318 319 318 316 315 311 308 305 304 301 300 300 299 298 296 298 297 297 296 292 292 295 295 295 294 294 294
298 299 299 298 299 298 299 298 300 302 304 308 310 311 311 307 308 312 314 313 312 311 308 305 303 301 299 298 299 298 297 295 296 300 299 295 294 291 294 294 293 293 293
298 298 297 297 297 297 299 298 299 298 300 304 305 305 305 303 305 305 308 309 310 309 307 305 303 301 299 298 298 298 297 297 293 295 296 297 299 293 288 293 293 293 291
296 296 296 297 297 297 297 298 298 297 298 299 300 300 301 302 304 303 302 304 306 306 306 305 303 301 299 298 298 296 297 297 296 293 294 293 294 296 296 288 289 291 291
296 296 297 297 296 297 296 297 296 296 297 297 297 296 297 297 299 300 300 301 302 303 303 303 302 301 299 298 298 296 296 296 297 295 295 293 292 291 293 293 289 288 289
295 295 295 294 294 294 295 294 294 294 296 296 295 295 295 295 295 296 297 298 299 300 300 300 300 299 299 298 298 296 295 295 295 296 295 295 295 295 294 294 290 289 288
293 293 294 293 293 293 293 294 293 292 293 294 295 296 295 295 295 295 295 296 297 298 300 298 298 298 298 297 296 295 295 295 295 295 295 294 295 294 294 293 289 287 286
291 291 293 293 292 292 292 292 292 291 291 291 293 293 293 294 294 294 294 294 294 294 295 296 296 296 296 295 295 294 293 293 293 293 294 294 293 293 293 293 292 290 285
290 291 291 292 292 292 292 292 291 290 290 290 290 291 291 291 291 293 293 293 293 293 292 293 294 294 294 294 293 293 292 292 292 292 292 292 292 291 292 292 292 292 291
288 289 290 290 291 290 290 290 289 289 288 289 289 289 289 289 289 288 289 290 291 292 291 291 291 291 291 292 292 291 291 290 290 290 290 290 290 290 289 289 289 288 290
285 286 289 288 288 288 288 288 288 288 288 287 288 288 288 288 287 286 286 288 288 290 290 290 289 289 290 290 290 289 288 289 288 288 288 288 287 288 288 288 287 287 287
284 285 287 287 286 286 286 286 286 286 287 287 287 287 287 287 286 285 285 286 286 287 288 289 288 288 288 288 289 289 288 288 288 288 288 287 287 286 287 286 286 286 283
283 284 285 286 287 286 286 285 285 286 286 286 285 285 286 286 286 285 285 284 285 285 286 286 287 287 287 287 287 287 287 287 287 287 288 287 286 286 286 286 285 285 284
282 283 283 284 286 286 285 285 285 285 285 284 285 284 285 285 285 284 283 283 284 285 285 285 285 286 286 286 286 286 286 285 286 286 286 287 286 287 287 285 285 285 284
282 283 283 284 284 285 286 284 284 285 285 283 283 283 283 283 283 282 281 281 281 283 284 283 283 284 285 287 288 287 285 285 284 284 286 286 285 286 288 289 289 287 285
283 282 283 284 284 285 285 284 283 284 283 282 282 282 281 281 281 281 280 279 279 280 281 281 282 282 283 286 287 288 286 285 285 284 284 284 284 285 284 288 289 289 290
283 283 284 284 285 285 284 283 283 282 281 280 280 281 280 279 280 279 278 277 278 278 278 279 280 281 282 285 287 287 286 285 285 285 284 284 284 284 283 283 284 285 285
285 285 285 284 284 283 283 281 280 279 279 278 278 278 278 277 277 276 275 275 275 275 275 276 277 279 280 284 285 286 285 285 285 285 285 285 284 286 287 282 282 283 283
285 285 284 283 282 282 281 278 277 276 276 276 276 276 276 275 274 274 273 274 273 273 274 274 275 276 276 281 283 284 284 283 284 285 285 285 285 286 287 283 282 281 282
285 283 283 281 280 280 277 275 275 273 274 274 273 272 272 271 271 270 271 270 269 270 269 270 271 272 274 276 281 283 282 283 283 283 284 285 287 287 287 286 282 282 283
282 281 279 278 278 276 274 272 271 272 271 269 268 267 266 266 267 265 265 265 265 265 265 266 268 271 273 276 279 282 284 284 283 282 284 285 287 286 287 286 285 285 284
278 277 274 273 273 272 271 269 269 269 267 265 263 263 263 263 263 262 262 262 263 263 264 265 265 267 271 274 278 281 284 284 283 284 285 286 287 286 285 286 286 284 282
274 273 271 269 268 269 269 267 267 266 263 262 262 262 261 262 262 262 262 261 261 261 262 262 263 265 268 271 274 278 280 281 282 283 283 285 286 284 282 282 284 282 281
271 270 268 267 266 267 266 265 264 263 261 261 261 261 261 261 261 262 262 262 263 263 261 262 263 263 263 267 271 275 276 279 280 279 281 281 282 279 279 279 280 281 280
268 266 265 265 264 264 263 263 263 262 260 259 259 259 259 260 260 260 260 265 267 268 269 269 268 267 270 272 273 275 276 278 281 279 278 279 279 277 277 278 278 280 279

GFSMW_sfc_thetae_012.txt.gz
Theta_e
298 298 297 297 296 296 296 298 299 301 303 308 309 310 311 313 315 316 315 316 312 310 306 302 301 297 296 295 294 292 292 291 290 290 289 289 290 290 290 290 290 291 291
296 296 295 295 295 295 294 295 296 298 301 305 306 307 305 307 308 314 313 313 312 309 305 301 299 296 294 293 293 292 291 291 291 289 287 284 286 289 290 290 290 289 289
293 293 293 293 293 293 294 294 295 295 297 299 303 304 303 301 301 302 306 310 310 308 304 301 298 296 294 294 293 292 291 288 289 292 290 286 285 285 287 288 288 288 287
293 294 292 292 292 292 293 294 295 295 295 296 296 295 296 296 299 299 299 300 305 305 305 301 299 296 294 293 293 294 293 289 288 288 292 290 289 285 282 286 287 287 287
292 292 292 292 292 292 292 292 293 294 294 294 293 292 292 293 294 295 295 296 299 301 301 300 298 296 294 292 292 291 291 292 288 290 287 287 287 288 285 281 283 286 286
292 292 293 292 291 291 290 290 291 292 292 293 292 291 290 290 290 291 291 293 294 296 298 298 296 296 294 293 292 291 291 290 290 290 288 287 286 285 285 284 282 282 284
290 290 289 289 290 289 290 290 288 288 290 290 290 291 290 290 290 290 290 289 290 292 293 294 294 294 294 293 292 290 289 290 290 289 290 288 288 288 287 286 282 281 282
289 289 289 288 288 289 288 288 287 287 287 288 288 289 289 290 290 290 290 289 289 289 290 290 291 293 293 293 292 289 289 289 290 288 288 289 290 289 287 287 283 280 280
287 287 289 288 287 287 287 287 286 286 286 286 286 286 286 286 286 287 288 288 289 290 289 289 289 289 290 290 290 288 287 287 287 289 288 287 288 288 288 288 285 285 278
286 287 286 288 286 286 287 286 286 285 285 285 286 286 285 285 284 284 284 285 286 287 288 288 288 288 288 288 287 287 287 286 286 287 287 287 286 287 287 287 286 285 285
284 285 285 285 285 285 285 284 284 284 284 284 285 284 284 285 284 283 283 284 284 285 286 287 286 286 286 287 286 286 286 285 285 285 285 285 286 285 285 285 285 285 285
282 283 285 283 284 284 283 283 283 283 284 284 283 284 284 284 283 283 283 282 284 285 285 285 286 285 285 285 285 285 285 284 284 285 285 285 286 285 285 286 286 286 284
283 282 282 283 282 282 282 281 282 282 284 283 282 282 282 281 281 281 281 281 282 283 283 284 284 284 285 285 285 285 285 285 284 285 285 286 284 285 286 285 286 285 285
283 281 281 281 281 282 281 281 281 282 282 281 281 280 280 280 281 281 281 280 280 280 280 282 283 283 284 284 284 284 284 285 285 285 285 286 285 285 285 286 285 285 284
281 281 280 281 280 281 282 282 281 281 281 280 279 279 280 280 280 279 279 279 278 279 279 280 281 282 282 283 283 283 284 284 284 285 285 285 286 287 287 285 286 285 285
282 281 281 281 281 281 282 283 282 281 280 279 278 280 280 280 279 279 279 279 278 277 277 277 278 279 281 284 286 286 284 285 284 284 284 285 285 286 289 290 290 288 285
280 280 281 281 282 281 282 281 280 279 277 276 276 277 277 278 278 278 278 278 277 277 276 276 276 276 278 282 283 285 283 284 284 284 284 284 284 285 285 287 290 290 291
281 281 281 281 281 281 280 279 279 277 277 276 275 275 276 276 276 276 275 276 276 275 275 274 275 274 275 280 281 283 282 282 282 283 284 284 284 284 284 284 284 285 286
281 281 281 281 280 279 278 277 276 276 276 275 275 275 274 273 273 272 272 273 272 272 272 273 273 272 273 277 279 279 277 279 280 282 283 284 284 286 288 284 283 283 284
281 280 279 279 278 276 275 275 274 272 272 273 273 272 271 269 269 269 269 269 268 269 270 269 270 270 270 274 276 276 274 274 277 279 281 284 284 287 288 285 284 281 282
280 279 278 277 276 274 273 272 271 270 271 270 269 268 267 266 265 265 265 265 264 265 264 264 265 266 267 268 273 274 273 273 274 276 278 281 285 287 288 289 284 283 284
278 276 275 274 273 273 271 269 268 270 268 267 265 264 263 263 264 262 262 262 261 261 261 261 262 264 265 269 270 273 274 275 274 275 278 280 284 286 288 288 288 288 286
275 274 270 270 271 268 267 266 267 267 265 263 261 261 262 262 262 261 260 260 261 260 260 260 260 261 264 265 268 271 272 274 273 276 279 283 284 285 286 287 288 286 285
271 270 267 265 265 265 267 263 265 264 262 260 260 261 260 260 260 261 261 260 260 259 260 259 259 260 261 262 263 264 265 268 269 274 277 281 283 284 284 283 286 285 284
269 267 265 265 264 265 264 261 263 261 260 260 260 260 260 259 259 259 259 260 261 262 262 263 264 263 263 265 268 269 267 267 270 271 273 274 277 278 280 282 282 283 283
267 265 263 263 262 260 261 261 258 258 259 259 259 259 259 259 259 259 259 264 266 268 269 270 269 267 270 271 271 272 272 273 273 270 270 271 274 276 278 280 279 280 281

GFSMW_sfc_thetae_015.txt.gz
Theta_e
294 294 294 293 293 293 294 294 295 297 300 304 305 307 308 309 313 316 316 316 316 315 308 305 304 299 298 295 293 291 290 289 288 288 287 287 289 289 289 289 289 290 291
292 293 292 292 292 292 292 293 293 294 296 299 301 302 300 301 306 307 311 312 312 312 309 304 301 298 294 293 292 291 289 290 289 287 285 283 286 287 289 288 288 288 289
290 290 290 290 290 290 290 292 293 293 293 294 296 297 298 298 298 302 303 303 307 308 307 304 301 298 296 294 292 291 290 289 288 289 288 283 283 283 286 287 287 287 286
290 290 289 289 289 289 289 291 292 293 293 293 292 291 291 290 292 294 294 295 298 303 304 304 301 298 296 294 292 292 290 289 287 287 291 288 287 283 282 285 286 286 286
289 289 289 290 290 289 288 288 291 291 292 292 291 291 289 289 289 290 290 291 293 295 298 299 301 299 297 295 293 293 290 289 288 288 286 286 286 286 283 281 282 284 285
289 289 290 290 289 288 287 287 288 289 290 290 289 289 289 289 289 289 289 289 290 291 291 292 293 295 296 294 293 293 292 292 289 288 287 287 286 285 285 282 281 281 283
287 287 287 287 287 286 286 287 286 286 287 287 287 287 287 287 287 287 287 287 288 288 288 288 288 290 292 293 292 289 289 291 291 292 289 289 288 286 286 285 281 281 282
288 287 287 286 286 286 285 285 285 285 285 285 285 285 285 285 285 285 285 286 286 287 288 288 287 287 288 289 290 289 287 287 288 291 290 291 289 287 286 286 282 280 279
286 287 286 286 286 285 284 284 284 283 284 284 284 284 284 283 282 282 283 283 284 286 286 286 286 286 286 286 287 286 286 286 286 287 288 290 291 290 288 286 285 285 281
285 284 285 285 285 285 284 284 284 283 283 283 284 284 284 284 282 281 281 281 282 283 283 284 284 285 285 285 284 284 284 284 285 286 285 286 289 289 290 289 285 284 289
283 285 283 284 284 283 282 282 283 283 282 282 282 283 282 283 282 281 281 281 281 281 282 282 282 283 283 283 283 283 284 283 284 284 284 285 285 287 289 285 286 287 283
282 284 283 283 283 282 282 281 281 282 282 282 281 281 282 282 281 281 280 280 279 280 280 281 281 282 282 282 282 283 284 283 284 284 284 284 286 284 286 286 286 287 285
282 282 281 280 280 280 280 280 280 281 281 281 280 280 280 279 279 279 280 280 280 279 279 279 279 280 281 281 282 282 283 283 284 285 285 285 285 284 285 285 285 287 286
282 280 280 280 280 280 279 280 280 280 280 279 279 278 278 278 278 279 278 279 279 278 278 278 279 279 280 280 281 282 282 282 283 284 285 285 284 285 285 285 285 286 286
281 280 280 280 279 280 281 281 280 280 280 279 279 278 278 279 279 278 279 278 278 278 278 277 277 277 277 278 279 280 280 281 282 283 284 284 285 286 287 285 285 286 285
280 280 280 280 280 280 280 281 280 280 280 278 278 278 278 279 279 278 278 278 278 277 277 277 277 276 277 280 281 281 279 279 280 280 282 283 284 285 288 289 290 288 285
279 278 279 280 280 280 281 280 279 278 276 275 274 275 276 276 276 277 276 275 275 275 275 275 275 275 275 279 280 280 278 277 277 278 280 281 283 283 284 286 289 289 290
279 280 279 279 280 280 279 278 278 276 276 274 273 273 274 273 273 273 272 272 272 272 272 272 272 272 273 277 278 278 276 275 276 276 278 279 280 282 283 283 283 284 286
280 280 279 279 278 277 276 276 275 275 275 274 274 273 271 269 269 268 268 268 268 268 268 269 268 268 268 273 273 273 271 272 272 274 275 276 277 281 284 283 282 282 283
280 279 278 278 276 274 274 274 273 271 271 272 271 270 269 266 266 266 265 265 265 265 266 265 265 265 264 269 270 271 269 268 269 270 272 275 276 279 282 280 281 280 281
279 278 276 274 273 273 272 271 270 268 269 269 268 266 266 264 264 263 264 263 262 263 262 262 263 263 264 264 269 270 269 268 268 269 270 273 276 278 280 282 282 282 284
276 276 274 273 272 271 269 268 267 269 266 265 263 263 261 261 263 261 261 261 260 260 260 260 261 262 264 266 268 270 271 271 268 267 269 271 275 277 279 280 283 286 286
275 273 270 270 270 267 267 265 266 265 264 259 258 258 260 261 261 259 259 259 259 259 259 260 260 261 263 264 268 269 270 270 268 268 269 272 273 275 276 280 282 283 283
271 269 266 264 264 265 266 263 263 263 255 254 258 260 260 260 259 260 260 259 258 258 259 259 259 261 263 265 267 267 265 267 268 268 267 269 271 273 275 274 280 281 282
269 267 265 264 263 264 262 259 261 258 257 258 260 260 260 259 259 260 259 260 261 262 262 264 265 264 264 266 271 272 270 270 271 269 267 267 269 269 270 271 279 280 281
266 264 263 262 261 258 258 257 255 254 254 258 259 259 259 259 259 259 259 264 266 268 269 270 269 268 271 272 273 274 275 275 276 271 267 267 267 267 268 270 273 276 278

GFSMW_sfc_thetae_021.txt.gz
Theta_e
289 289 289 289 290 290 291 291 291 292 293 297 299 300 297 301 299 299 299 305 308 312 311 309 308 306 306 304 301 296 295 293 291 289 287 287 288 288 288 288 288 289 290
287 287 287 287 287 288 289 290 290 291 291 292 293 295 294 294 293 293 293 294 295 298 303 304 303 303 302 300 298 296 294 293 291 290 287 285 286 286 287 287 288 287 288
285 285 285 284 285 285 286 288 289 290 290 291 291 291 291 290 290 290 290 291 291 291 293 294 297 297 298 298 297 295 294 293 291 290 291 286 283 282 285 285 286 286 286
286 286 285 284 284 284 285 286 287 287 289 290 289 288 287 286 287 287 288 288 288 288 290 290 291 291 294 295 295 295 294 292 291 291 290 289 288 285 284 285 285 285 286
285 285 285 285 284 284 283 283 285 285 285 286 286 285 284 285 284 284 284 285 285 286 286 287 288 288 289 289 290 292 293 292 291 290 290 288 288 287 286 285 283 284 285
284 284 285 284 283 282 282 282 283 283 283 283 283 283 282 282 282 282 282 283 283 284 284 285 285 285 285 286 287 288 288 289 291 291 290 289 288 287 286 285 284 284 284
283 283 283 282 282 281 282 283 282 282 282 282 282 281 281 281 280 280 281 281 281 281 282 283 282 283 283 283 284 284 285 286 285 287 289 291 290 290 289 287 287 285 283
284 284 283 282 282 282 281 282 282 281 282 282 281 281 281 280 280 280 280 280 280 280 281 281 281 281 281 282 282 281 281 282 282 283 283 285 287 288 289 288 287 285 287
284 284 284 283 282 282 281 282 282 282 282 282 281 281 281 280 279 279 279 279 279 281 280 279 279 280 280 280 279 279 279 280 280 281 282 282 284 285 286 287 288 287 283
284 284 284 284 283 282 282 281 281 281 281 281 281 281 280 280 279 278 278 278 278 279 279 278 278 279 279 279 278 279 279 278 278 280 280 280 281 282 283 284 285 286 286
284 284 283 283 283 282 282 281 281 280 280 280 279 279 279 279 279 278 278 278 278 278 278 278 278 277 277 277 277 277 278 277 278 278 278 279 280 280 281 281 282 284 284
283 283 284 282 282 282 281 280 280 279 279 279 278 279 278 278 278 277 278 278 277 278 278 278 278 277 277 277 276 276 276 276 276 277 278 278 280 279 279 280 281 281 283
283 283 281 280 280 279 279 279 279 279 280 279 278 278 278 277 277 277 278 278 277 277 277 277 276 276 276 276 276 276 276 276 277 277 277 278 278 278 279 278 280 281 283
282 280 278 279 279 278 278 277 278 279 279 278 278 277 277 277 277 277 276 276 276 275 275 275 275 275 275 275 276 276 276 277 277 277 277 277 277 277 278 279 279 280 280
281 279 280 278 277 277 277 277 277 278 278 277 277 277 277 277 276 275 275 275 274 274 274 273 273 273 274 275 275 275 275 275 275 275 276 277 277 280 280 279 278 279 279
280 279 279 279 278 278 278 278 278 278 278 277 276 276 275 275 274 274 273 273 272 272 272 271 271 271 272 275 276 276 274 274 273 273 274 274 275 276 279 280 281 281 278
281 280 279 279 279 278 279 278 278 278 275 274 271 271 273 272 272 271 271 270 269 270 269 269 269 268 269 273 274 275 272 271 271 271 271 272 273 273 273 275 277 278 279
278 278 278 278 278 278 278 277 277 275 274 272 270 270 271 269 269 268 268 268 268 267 267 267 266 266 268 272 272 273 271 270 270 269 270 270 270 271 271 271 271 272 273
278 279 279 278 277 277 277 276 274 274 273 272 271 270 268 266 267 264 265 265 265 265 264 265 265 264 264 269 271 271 269 268 268 269 269 269 269 272 274 272 271 271 272
279 279 279 278 276 275 275 274 272 270 270 271 270 269 267 263 262 264 263 264 262 264 264 264 264 263 262 267 269 270 268 266 267 268 269 271 271 273 275 272 270 268 270
279 278 277 276 275 273 272 271 270 268 269 268 267 266 265 262 262 261 262 261 260 262 260 261 261 261 262 263 269 271 269 268 267 267 268 270 273 274 275 275 272 271 272
278 279 276 274 272 272 271 269 268 268 266 265 265 263 259 260 261 255 258 257 258 257 258 258 259 261 263 266 268 270 272 272 269 268 269 270 273 275 276 275 276 277 277
278 277 274 272 271 268 268 267 267 266 265 261 260 256 257 259 259 254 257 258 256 256 258 259 259 260 263 264 268 271 272 273 271 271 272 275 276 277 276 276 276 274 271
274 272 270 269 267 265 267 264 265 264 259 258 259 258 257 257 257 259 260 258 257 257 258 258 259 261 265 267 268 268 268 271 272 273 272 274 276 277 276 273 274 272 272
271 270 270 269 266 265 264 263 263 260 258 258 259 257 256 255 257 258 259 259 260 261 261 264 265 265 264 266 272 272 271 271 272 273 271 268 268 267 268 270 269 269 269
268 267 266 265 263 262 261 260 258 257 256 258 259 257 257 257 258 258 258 263 267 269 270 271 270 268 271 272 273 273 274 275 274 268 263 262 263 264 265 265 266 269 268

GFSMW_sfc_thetae_024.txt.gz
Theta_e
287 287 287 286 287 288 288 289 290 290 293 295 296 296 292 294 293 293 293 294 295 298 300 303 302 304 303 302 301 298 297 296 293 293 294 292 290 288 288 288 288 288 289
285 286 285 285 285 285 286 287 289 289 291 291 291 291 291 291 291 291 289 290 291 292 292 294 296 297 298 296 296 295 294 294 292 292 289 288 289 287 287 286 287 287 287
284 283 284 283 283 283 283 286 287 288 289 290 291 290 289 288 287 286 285 285 287 288 289 290 290 291 292 292 293 294 293 293 292 291 291 289 287 285 287 286 286 286 286
284 283 283 282 282 282 283 283 284 286 287 287 287 285 284 282 283 283 284 284 285 285 285 286 286 287 288 288 289 292 291 290 289 292 291 289 288 286 284 286 287 285 286
283 283 282 283 282 282 281 281 282 283 283 284 284 283 282 282 282 281 282 282 283 283 284 284 284 284 284 285 285 287 288 289 288 288 289 289 288 288 286 284 284 287 287
283 282 283 282 281 281 281 281 281 281 282 282 281 281 280 280 280 280 280 280 281 281 282 282 282 282 282 282 283 283 284 284 285 286 287 287 288 287 287 286 287 287 287
282 282 281 280 280 280 281 281 281 280 280 280 280 280 279 279 279 279 279 279 279 279 279 280 280 280 280 281 281 280 280 281 281 282 283 285 286 287 286 285 285 285 285
283 282 282 281 280 281 280 281 280 280 281 280 280 280 280 280 279 279 278 278 278 278 278 278 278 278 279 279 278 278 278 278 279 278 279 282 283 284 285 284 282 282 284
283 283 282 281 280 280 281 281 281 281 281 280 280 280 279 279 278 278 278 278 278 280 278 278 277 277 278 278 277 277 277 277 277 277 278 279 280 282 282 283 283 282 280
283 283 283 282 282 282 282 282 282 281 280 280 280 279 279 279 278 278 278 277 278 278 278 278 277 277 277 277 276 276 277 276 276 277 277 277 278 279 279 280 281 281 281
284 284 283 283 282 281 280 279 279 280 279 279 278 278 278 277 277 277 277 277 277 277 277 277 277 277 276 276 275 275 276 275 275 276 276 277 277 278 278 279 279 279 279
284 284 284 283 282 281 280 280 279 279 279 278 278 278 277 277 277 276 277 277 277 277 277 277 277 276 276 276 275 275 275 274 275 275 276 276 278 276 277 277 277 278 279
283 283 282 282 281 280 280 279 279 279 279 278 277 277 277 277 276 277 277 277 276 276 276 275 274 274 274 274 274 275 275 275 275 276 276 276 276 276 276 276 276 277 279
284 282 280 280 280 280 279 278 278 278 279 278 277 277 277 276 276 276 276 275 275 274 273 273 273 273 273 273 274 275 274 274 274 275 275 275 275 275 275 276 276 277 277
282 281 281 280 280 278 278 277 277 278 278 277 277 277 277 276 275 274 274 273 273 273 272 272 271 272 272 273 274 274 273 273 273 273 274 274 274 276 276 275 275 276 275
283 283 280 280 279 278 278 278 277 277 277 277 276 276 275 275 273 273 272 272 271 271 270 270 269 269 271 274 275 275 273 272 271 271 271 272 272 273 275 276 277 276 274
282 282 280 279 279 278 279 277 278 277 276 275 273 272 272 272 271 270 270 270 269 269 268 268 268 267 268 273 274 274 272 271 270 270 270 270 271 271 271 272 274 274 275
278 279 280 278 278 278 278 277 278 276 275 273 270 270 270 269 269 268 267 267 267 266 266 266 266 266 267 272 273 273 271 269 269 269 269 269 269 270 270 270 271 271 272
278 278 278 277 276 277 277 276 275 275 274 272 271 270 268 266 266 263 264 265 264 264 263 265 264 263 264 269 271 271 269 269 268 269 269 269 269 271 274 272 271 271 272
278 278 278 278 277 277 276 274 273 272 271 271 271 269 267 263 262 264 263 263 261 264 264 264 263 263 262 267 270 271 269 267 268 268 269 272 272 274 275 273 271 269 270
278 278 277 277 277 275 273 273 271 270 270 269 267 266 265 262 262 261 261 259 258 262 259 260 261 261 262 262 269 271 270 269 268 269 270 271 274 275 276 276 273 272 274
278 279 277 276 275 273 272 271 270 269 267 266 265 264 261 262 261 255 256 255 255 255 256 257 259 261 263 266 269 272 273 274 270 269 270 271 275 276 278 278 278 279 278
277 277 276 275 273 270 270 269 268 266 264 262 262 260 261 261 261 256 258 256 253 254 257 259 259 260 263 264 270 272 273 274 272 272 273 276 276 277 276 275 276 274 273
276 273 270 270 270 267 268 266 266 264 259 257 260 261 260 260 260 261 260 255 254 256 258 258 258 260 263 267 267 268 270 273 272 273 272 273 272 272 271 268 269 269 269
273 271 272 271 270 266 264 263 263 261 258 258 261 260 260 259 259 259 258 259 260 260 258 259 262 265 264 266 272 273 271 271 273 271 266 263 262 262 263 264 265 265 266
270 269 268 268 265 264 262 260 259 259 258 259 260 260 260 260 259 258 258 263 267 269 270 272 271 268 271 272 273 273 274 274 271 264 258 258 259 260 261 261 262 263 264

GFSMW_sfc_thetae_027.txt.gz
Theta_e
288 288 288 288 288 289 290 291 293 294 297 298 298 295 292 292 291 291 292 293 295 296 297 299 300 302 300 300 300 302 301 300 298 298 301 300 297 296 296 296 295 296 295
286 286 286 286 286 286 287 289 290 292 294 294 294 293 291 289 289 289 288 289 291 292 292 293 293 294 296 296 296 297 298 298 296 295 295 295 298 295 296 295 294 295 295
285 285 285 284 285 285 284 286 287 289 291 293 292 291 290 289 287 286 286 286 287 288 289 289 290 290 291 291 293 294 294 294 296 295 293 294 292 291 296 296 294 294 294
285 285 284 283 284 283 284 284 285 286 287 288 288 287 285 283 284 284 285 285 285 286 286 286 286 287 287 287 289 290 291 293 291 294 294 294 292 289 290 294 296 295 295
284 284 283 283 283 283 282 283 284 284 284 285 286 284 283 284 284 284 283 283 284 284 284 285 285 285 285 285 285 285 285 287 287 289 290 291 292 291 289 288 291 294 295
284 284 284 283 282 282 282 283 283 282 283 283 283 283 283 282 282 282 282 282 282 282 282 283 283 283 283 283 283 284 283 284 284 284 286 286 286 286 286 286 286 287 291
284 283 282 282 282 282 282 282 282 281 282 282 282 282 282 282 281 281 281 281 281 281 281 281 281 281 281 281 282 282 282 282 282 281 282 284 284 285 286 285 284 283 286
283 283 282 282 282 282 282 282 281 281 281 282 282 282 282 282 281 281 281 281 281 280 281 280 280 280 280 280 280 280 281 281 281 280 281 281 282 283 283 283 282 280 282
283 283 283 282 282 282 282 282 282 281 282 281 281 281 281 281 280 280 280 280 280 280 280 280 279 279 279 279 279 279 279 279 279 280 280 280 281 282 282 282 282 280 277
283 284 283 283 282 282 282 282 282 282 281 281 281 281 280 280 280 280 279 279 279 280 279 279 279 279 279 279 278 278 278 278 278 279 278 279 280 280 281 281 281 281 279
284 284 284 284 283 282 281 281 281 281 281 281 280 280 279 279 279 279 279 279 279 279 279 278 278 278 277 278 277 277 278 277 277 278 278 278 279 279 279 280 280 279 280
285 285 285 284 282 282 281 280 281 281 281 280 280 280 279 279 279 279 279 279 278 278 278 277 277 276 276 276 276 276 276 276 276 277 277 277 278 277 278 278 277 278 279
285 285 284 283 283 281 281 280 280 280 280 279 279 279 279 278 278 278 278 278 277 277 276 276 275 275 275 275 275 276 275 275 275 275 275 275 275 275 276 276 276 277 277
285 284 282 283 282 282 281 280 280 280 280 279 279 278 278 278 278 278 277 276 276 275 274 274 274 273 273 274 275 275 275 275 275 275 275 274 274 274 274 275 275 276 276
283 283 283 282 281 281 281 280 280 280 280 279 278 278 279 278 277 276 275 274 274 273 273 272 272 272 272 274 275 275 275 274 273 273 273 273 274 275 275 274 274 274 274
284 284 283 282 281 281 281 280 280 279 279 279 279 278 278 276 275 274 274 273 272 271 271 270 270 269 271 273 276 276 274 273 272 271 272 272 272 273 274 275 275 275 273
282 283 283 281 281 280 281 279 279 278 278 277 275 275 275 275 273 272 271 271 270 269 269 269 268 268 268 273 275 275 273 272 271 270 270 270 271 271 271 272 273 274 274
281 281 282 281 280 280 279 278 278 277 277 276 275 273 273 272 270 269 269 268 268 268 267 267 267 267 268 272 273 274 272 271 270 270 270 270 270 270 271 271 272 272 273
280 279 280 280 278 278 278 277 276 276 275 275 274 273 271 269 268 266 267 267 266 266 265 267 265 265 265 269 272 273 271 270 269 270 271 270 270 272 274 273 273 273 273
279 279 279 278 277 277 277 275 275 274 274 274 274 271 269 266 265 266 265 265 264 266 265 265 264 263 263 267 270 272 271 269 270 271 271 273 273 275 276 274 273 271 272
278 278 278 278 278 276 274 274 273 273 273 271 270 268 267 265 265 263 264 262 262 263 260 262 262 262 263 264 270 272 271 271 270 271 271 272 275 276 277 278 276 275 277
278 279 277 277 277 275 274 273 272 271 270 268 267 265 263 265 263 259 260 259 259 259 259 259 261 263 264 267 269 272 274 275 272 271 272 273 276 278 278 276 276 277 276
277 277 277 276 276 273 272 272 271 269 266 265 263 261 261 262 261 258 260 261 259 259 259 261 261 262 265 265 269 272 273 274 273 273 274 276 275 274 272 272 273 272 269
275 274 272 272 273 270 271 271 268 267 263 261 262 261 260 261 260 262 262 260 259 260 260 259 260 261 263 265 268 269 270 273 273 274 270 270 268 268 268 266 267 267 267
274 271 273 274 274 269 268 266 266 264 262 261 262 262 261 260 262 262 262 262 262 261 257 258 260 261 263 267 272 273 272 273 273 269 263 261 261 261 262 263 263 264 265
271 270 271 270 270 267 265 262 262 262 262 261 261 261 261 260 261 261 261 264 267 269 271 272 271 270 272 272 273 274 274 274 271 261 258 258 259 259 260 260 261 262 263

GFSMW_sfc_thetae_030.txt.gz
Theta_e
292 294 294 295 298 299 302 300 300 300 303 302 301 300 299 298 297 297 299 300 301 302 304 303 305 305 305 304 305 307 306 304 304 307 307 308 305 303 304 304 303 302 302
292 292 294 295 296 296 298 300 299 299 302 303 301 299 296 294 294 294 294 294 295 296 297 298 298 300 300 300 301 302 303 303 301 300 303 302 304 303 304 302 300 302 302
292 292 292 292 294 294 295 296 297 298 299 298 297 295 295 294 292 291 290 291 292 292 293 293 293 293 294 293 295 297 299 298 300 300 299 298 296 297 302 300 302 300 300
292 291 291 291 292 292 293 294 295 296 296 297 298 297 294 290 289 289 289 289 290 290 290 290 290 290 290 290 290 291 291 293 290 296 295 297 296 293 292 298 297 296 293
292 290 290 289 289 291 291 292 292 292 293 293 293 292 290 289 289 289 288 288 288 288 288 289 289 288 289 289 288 289 289 289 288 288 289 290 291 292 287 286 288 290 292
290 290 289 289 288 289 290 290 290 289 291 291 291 290 289 288 288 288 287 287 287 287 287 287 287 287 286 286 287 287 287 287 287 287 287 286 285 285 285 284 285 286 288
290 289 288 288 288 288 288 289 288 287 288 289 289 289 289 289 288 287 287 286 285 285 285 286 285 285 285 285 285 285 285 285 284 284 285 285 285 285 285 284 283 283 286
290 289 289 288 287 287 287 287 287 286 287 287 287 288 288 287 287 287 286 286 285 285 285 285 284 284 284 284 284 284 283 284 284 283 284 283 284 285 284 283 282 281 282
290 289 289 288 287 287 287 287 287 286 287 287 287 286 286 286 285 285 286 285 285 284 284 284 284 284 283 283 283 283 283 283 283 283 283 282 283 284 284 284 284 281 278
290 290 289 288 288 288 288 287 287 286 286 286 286 286 286 286 285 285 285 284 284 284 284 283 283 283 283 282 283 283 283 282 283 282 282 282 283 283 283 283 283 282 281
291 290 290 290 288 288 288 287 287 286 286 286 286 285 285 285 285 285 285 284 284 283 283 282 282 281 281 281 281 281 281 280 281 281 281 281 281 281 282 282 282 281 281
292 291 291 290 288 287 287 287 287 286 286 286 285 285 285 285 285 284 284 284 283 282 282 281 280 280 279 279 279 279 279 279 279 279 279 279 279 279 280 280 279 279 280
292 292 291 290 289 288 287 286 286 286 286 285 285 284 284 284 284 284 283 283 282 281 280 279 279 278 278 278 278 278 278 278 278 278 278 278 278 277 278 277 277 278 278
291 291 291 291 291 290 288 286 286 286 285 285 284 284 284 284 284 283 282 281 280 279 278 278 277 277 277 276 277 278 278 278 278 278 277 277 276 276 276 275 276 276 276
291 291 291 291 291 290 289 288 286 285 285 284 284 284 284 284 283 282 281 279 278 278 277 277 276 275 275 276 277 278 278 277 277 277 276 276 276 275 275 275 275 275 274
291 291 291 290 290 290 289 288 286 286 285 284 283 284 283 282 281 280 278 277 277 276 275 275 274 273 274 274 276 277 276 276 275 274 275 275 274 275 275 275 276 275 274
291 290 290 289 289 290 288 287 287 286 284 283 283 282 282 281 280 278 277 276 275 275 274 273 273 272 273 273 275 276 275 275 275 273 273 273 274 274 273 274 275 275 276
290 289 289 289 288 288 286 287 286 284 283 283 282 281 281 280 278 276 275 275 274 273 273 272 272 272 272 272 274 275 275 274 274 273 273 272 273 273 273 273 274 274 275
289 289 290 288 286 285 285 283 282 282 282 281 281 280 280 278 276 274 274 273 273 272 272 271 271 270 270 271 273 273 274 273 273 273 273 273 273 274 276 275 274 275 275
287 285 284 283 284 284 283 281 281 281 280 281 281 280 279 276 274 274 272 273 272 271 271 270 270 268 267 269 271 273 274 272 273 274 274 275 275 276 277 276 275 274 275
284 283 283 283 283 282 280 281 280 279 281 280 278 277 276 274 273 272 271 270 269 269 268 267 268 267 267 268 271 273 273 273 273 274 274 274 276 277 278 279 276 274 276
282 283 282 281 282 281 280 280 279 281 278 277 275 274 272 272 270 269 268 267 267 266 266 267 268 269 268 269 271 273 274 275 274 273 274 275 277 276 276 275 275 275 274
281 282 281 280 280 279 279 279 281 277 274 273 272 270 269 270 268 267 267 267 267 267 268 268 268 269 269 270 271 272 273 275 274 274 275 275 274 272 271 271 272 270 269
279 279 279 278 279 278 277 279 276 274 271 271 270 268 267 267 266 268 268 268 268 268 268 268 268 268 269 270 271 272 273 274 275 275 271 270 269 269 269 267 268 267 267
279 278 278 279 279 280 278 277 274 272 271 271 269 269 269 267 268 268 269 268 269 269 268 267 268 268 269 270 273 274 273 274 275 271 268 266 265 265 266 266 266 266 266
278 277 277 277 279 277 276 273 271 270 271 270 269 270 269 268 268 268 267 269 270 271 272 273 273 272 273 274 273 274 275 275 272 268 264 263 264 263 264 264 264 265 265

GFSMW_sfc_thetae_033.txt.gz
Theta_e
297 298 299 301 304 307 303 304 304 304 304 303 303 302 301 301 299 300 301 301 303 304 305 305 305 306 304 304 305 308 306 304 304 306 306 310 306 306 307 305 304 304 304
296 296 298 300 302 304 303 302 302 304 305 306 304 302 299 298 297 296 296 296 297 297 298 298 299 299 298 298 299 301 303 302 302 299 303 302 303 304 303 304 303 301 296
296 295 296 298 301 302 303 302 303 304 304 302 300 298 297 297 294 293 292 292 293 293 295 294 294 294 294 292 293 294 295 294 298 297 297 295 294 295 302 301 297 295 293
297 296 295 297 298 298 300 301 301 301 301 301 300 299 297 292 292 291 291 291 291 291 292 292 292 292 292 291 291 291 292 292 289 293 292 293 294 289 287 292 294 291 291
296 295 295 294 295 296 297 298 297 297 298 299 299 296 293 292 291 290 289 289 289 290 290 290 290 290 290 290 290 290 290 290 289 289 289 289 289 290 285 283 285 288 289
295 295 294 293 293 294 294 295 295 294 295 295 295 293 292 291 290 289 288 288 288 288 288 288 289 288 288 288 288 289 288 288 287 287 287 286 284 283 283 282 283 283 286
294 293 291 291 291 292 292 292 292 291 292 293 293 293 292 291 290 289 288 287 287 286 286 287 287 286 286 286 287 287 286 286 285 285 285 285 285 285 284 283 282 281 284
293 292 292 291 290 290 290 290 290 289 290 291 291 291 291 290 289 289 289 288 287 286 287 286 286 285 285 285 285 286 285 285 285 284 284 284 285 285 284 282 281 279 281
293 293 292 291 289 289 289 290 289 289 289 289 289 289 289 289 288 288 288 287 287 286 286 286 285 285 285 285 285 285 284 285 285 284 285 284 284 285 284 284 283 280 277
293 293 291 290 290 290 290 289 289 288 288 289 288 288 288 288 287 287 287 286 285 285 285 285 285 284 284 284 284 284 284 283 284 283 283 283 283 283 284 283 283 282 280
293 293 292 291 290 290 290 289 288 288 288 288 287 287 287 287 287 287 286 286 286 285 284 284 284 283 282 282 282 282 281 281 281 282 281 281 282 281 281 281 281 281 280
294 294 293 291 290 289 289 289 288 288 288 287 287 287 286 286 286 286 286 286 285 285 283 283 282 281 281 281 280 280 280 280 279 280 280 279 280 279 279 279 279 278 279
294 294 293 291 290 289 289 288 288 288 288 287 287 286 286 286 286 286 285 285 284 283 282 281 280 280 280 279 279 279 279 279 279 279 279 278 278 277 278 277 277 277 277
294 294 293 292 291 290 289 289 289 289 288 287 286 286 285 286 286 285 284 284 283 282 281 280 279 279 278 278 278 278 279 279 279 279 279 278 277 276 276 275 275 276 275
293 293 293 293 293 292 290 289 289 288 288 286 285 285 286 286 286 284 283 282 281 281 280 279 278 278 277 277 277 278 278 278 278 278 277 277 277 277 276 275 275 275 273
293 293 293 293 293 293 292 290 289 288 287 286 285 285 285 284 283 282 282 280 279 278 278 277 276 276 276 277 276 277 277 277 276 276 276 276 276 276 277 277 277 276 273
294 293 293 293 293 294 292 291 291 289 286 284 284 283 284 282 282 281 280 279 278 278 277 276 275 275 275 276 276 277 276 276 276 275 275 274 275 275 274 275 276 276 277
293 293 294 294 293 294 292 292 290 288 285 284 283 283 282 281 281 280 278 278 278 276 275 275 275 274 274 276 276 276 275 275 275 275 274 274 274 274 274 274 274 275 276
294 293 294 294 292 290 289 287 285 285 284 283 283 282 281 280 280 278 277 277 277 276 275 275 274 273 273 275 275 275 274 274 274 275 275 274 274 275 277 276 274 274 275
290 290 290 288 287 287 285 283 282 282 282 283 283 282 282 280 279 278 276 277 276 275 275 274 273 272 271 273 274 274 274 273 274 275 275 277 277 278 278 276 275 273 273
286 286 285 284 285 285 282 282 282 281 283 282 281 280 280 279 278 277 277 275 274 273 272 271 272 271 270 270 274 275 273 273 273 274 274 275 277 277 278 278 273 272 274
283 284 283 283 284 282 282 281 281 282 281 280 278 277 276 277 276 274 273 272 271 270 269 269 270 271 270 271 272 274 276 276 273 273 274 275 277 277 276 274 274 275 273
283 283 283 282 282 281 281 280 281 279 277 276 275 274 273 274 273 271 271 270 270 270 270 270 270 271 272 271 273 274 275 275 274 274 275 277 275 274 272 272 272 270 268
281 281 280 279 279 279 279 281 279 277 275 274 273 272 271 272 270 271 272 271 271 270 270 271 271 271 271 271 272 272 272 274 275 275 273 272 272 271 270 268 269 268 267
280 280 279 279 280 280 279 279 277 275 275 274 273 273 272 270 270 270 271 271 272 273 271 271 271 270 269 272 273 273 273 273 274 274 269 267 267 266 266 266 266 267 266
279 278 278 278 279 279 278 277 275 274 274 274 273 273 273 271 271 271 270 274 274 274 274 274 271 271 274 275 275 276 276 276 274 268 265 265 264 264 264 264 264 265 265

GFSMW_sfc_thetae_036.txt.gz
Theta_e
294 295 296 298 302 301 303 304 302 303 303 303 301 300 298 297 295 296 296 296 298 300 299 299 299 297 296 295 297 300 298 295 295 297 298 298 299 297 297 297 296 292 292
292 294 295 297 301 300 301 302 303 304 304 305 301 299 296 293 292 291 292 292 293 293 293 292 291 291 290 289 290 290 293 293 291 291 294 293 296 294 297 293 293 288 289
291 292 293 295 297 300 300 300 301 303 302 299 296 294 293 291 289 288 287 289 290 290 290 289 289 288 288 287 287 287 287 286 288 287 289 287 285 287 292 288 288 286 287
293 292 293 294 295 296 300 301 301 300 299 296 294 292 290 287 287 286 286 287 288 288 288 288 288 287 287 286 286 287 285 285 283 286 288 284 286 282 279 284 284 286 286
292 291 291 294 294 294 294 296 294 295 296 296 294 290 287 287 286 286 285 285 285 286 286 286 285 285 286 285 284 284 284 284 282 282 283 282 281 281 279 276 279 281 283
291 291 291 291 291 291 292 292 291 291 292 292 290 288 286 286 285 284 284 283 283 284 284 285 284 284 283 283 283 283 282 282 282 282 281 281 279 278 278 276 277 277 280
290 290 288 288 288 288 289 290 289 289 290 289 289 288 287 286 285 284 283 283 282 282 282 283 282 282 282 283 283 281 281 281 280 280 280 281 281 281 280 278 276 276 278
290 289 288 288 288 288 288 287 287 287 287 288 287 287 287 285 285 285 284 283 282 282 282 282 282 281 282 282 282 280 280 280 279 279 279 279 280 281 280 279 277 275 276
290 289 289 287 287 287 286 286 286 286 286 286 286 285 285 284 284 284 283 282 282 283 282 282 281 281 281 281 281 279 279 279 279 279 279 279 279 280 279 279 279 277 273
290 290 289 288 287 287 286 286 286 285 286 285 285 285 284 284 284 283 282 282 281 281 281 281 280 280 279 279 279 278 278 278 278 278 278 277 278 278 278 278 278 277 275
290 290 289 288 287 286 286 285 285 285 284 285 284 283 283 283 283 282 282 281 281 281 280 280 279 279 278 278 277 277 277 277 277 277 277 277 277 276 276 276 276 276 275
291 290 289 287 286 286 286 285 284 284 284 284 283 282 282 282 282 281 281 281 280 280 279 279 279 278 278 277 277 277 277 276 276 277 276 276 278 275 275 275 274 274 274
291 290 289 287 286 286 285 285 284 284 284 283 282 282 281 281 281 281 281 281 280 279 278 278 277 277 277 277 277 277 277 277 277 277 276 276 275 275 274 273 273 273 275
291 290 289 288 287 286 285 285 284 284 283 283 282 281 280 281 281 280 280 280 279 278 277 277 277 277 276 276 276 276 276 276 277 277 277 276 275 274 274 274 273 274 273
291 290 290 288 287 286 286 285 285 284 284 283 281 281 281 281 281 280 279 279 278 278 277 276 276 276 275 276 275 276 276 276 276 276 276 276 276 278 277 275 274 273 272
291 291 290 289 288 287 286 286 285 284 284 282 281 281 281 281 280 280 279 278 277 277 276 275 275 274 276 278 278 277 276 276 276 275 275 275 276 275 277 278 278 277 273
292 291 290 290 289 288 287 286 285 284 283 281 280 280 281 280 279 279 278 277 276 276 275 274 274 274 274 278 279 278 277 275 275 275 275 275 275 275 274 275 277 277 277
291 291 291 291 290 288 288 286 284 282 282 281 280 279 280 279 277 277 276 275 275 274 274 273 273 273 274 278 279 278 275 274 274 274 274 274 274 274 274 274 273 274 275
293 292 292 291 290 288 287 286 283 282 281 280 280 279 279 277 277 276 275 275 274 273 272 272 271 271 271 278 278 277 273 273 273 275 274 274 273 275 278 276 273 274 275
290 289 289 287 287 285 285 284 282 281 280 280 281 280 278 277 277 276 274 274 272 274 273 273 271 270 267 276 277 277 273 267 272 273 275 277 276 278 279 276 274 271 271
286 285 285 285 284 283 282 281 280 281 280 279 278 277 278 278 277 275 272 272 270 272 269 270 268 267 268 269 276 277 274 271 270 271 272 274 277 278 279 279 274 271 274
283 282 282 281 281 281 281 279 279 279 277 277 276 275 275 277 275 274 269 270 270 267 265 264 264 268 269 271 274 276 277 276 272 270 273 273 276 278 278 277 276 276 273
281 281 280 279 279 278 278 278 278 277 275 274 273 272 272 273 272 271 269 267 266 267 266 267 266 267 270 269 275 276 276 277 275 273 274 277 277 276 273 273 273 271 264
279 277 278 276 275 275 277 274 275 275 273 272 272 270 270 268 268 269 269 268 267 266 267 267 267 264 267 268 268 269 270 273 274 274 272 272 275 274 271 267 268 267 265
278 277 277 276 276 274 274 272 273 274 272 271 270 268 267 268 266 267 266 268 266 268 263 263 264 264 264 266 271 269 266 267 270 271 266 262 261 261 262 261 262 264 263
275 275 274 274 274 274 271 271 272 272 271 269 269 269 269 267 267 266 264 274 274 275 277 277 269 263 272 274 276 277 277 278 278 268 256 257 259 261 260 259 260 261 262

GFSMW_sfc_thetae_042.txt.gz
Theta_e
292 293 294 299 299 299 299 300 299 301 302 301 300 298 296 295 295 296 297 295 295 296 294 292 291 292 293 292 292 289 287 287 288 294 293 292 290 288 286 284 285 285 285
290 292 293 297 298 298 299 299 300 300 302 303 299 296 294 291 291 291 289 290 291 290 289 289 288 288 287 286 287 288 287 285 284 291 291 288 289 287 284 283 283 282 283
291 291 293 297 296 297 298 300 300 301 302 298 294 291 291 290 289 286 286 287 288 288 288 287 286 286 286 284 284 285 285 283 283 283 288 282 283 283 287 282 280 281 281
292 292 293 295 297 297 298 300 301 300 296 295 293 292 288 286 286 284 284 285 286 286 287 286 286 285 285 284 283 283 283 283 281 282 283 280 282 277 276 278 279 280 281
292 291 293 296 297 297 297 298 298 295 295 295 294 290 286 285 285 284 284 284 284 285 285 285 284 284 283 282 282 282 281 281 280 280 279 278 278 277 276 274 276 278 279
291 292 293 295 296 294 295 295 295 295 295 294 291 288 285 284 284 283 283 282 283 283 283 283 283 282 282 281 281 280 280 280 279 279 279 278 276 276 275 274 275 275 277
290 290 291 293 294 293 293 294 295 294 293 291 289 287 286 285 284 283 283 282 281 280 281 282 281 281 281 281 280 280 279 279 278 278 278 279 278 278 278 277 275 274 276
289 290 291 293 294 292 291 293 292 292 290 288 286 286 285 285 284 283 283 282 281 281 280 280 280 280 280 280 279 279 279 278 278 278 278 278 279 279 279 278 276 273 274
288 289 290 291 291 291 291 290 288 289 288 287 286 285 285 284 283 282 282 281 280 281 280 280 279 279 279 279 279 278 278 277 278 277 278 278 278 278 277 278 277 275 271
286 287 288 289 290 290 289 287 288 287 287 286 286 285 285 284 283 282 280 280 280 280 279 279 279 279 279 279 278 277 277 277 276 277 276 276 277 276 276 276 276 276 273
287 287 287 287 288 288 286 287 286 285 285 286 285 284 283 283 282 281 281 280 280 279 279 279 279 279 278 278 277 277 277 277 276 276 276 276 276 275 274 275 275 274 274
288 287 287 286 285 286 286 286 285 285 285 285 284 283 283 282 281 281 280 280 280 279 279 279 278 278 278 277 276 276 276 276 276 276 276 275 277 274 274 274 273 273 273
287 286 285 285 285 285 285 285 285 285 284 283 283 282 281 281 281 280 280 280 279 279 279 279 278 277 277 277 277 277 277 276 276 276 276 275 275 274 274 273 273 272 274
288 286 286 285 285 285 285 285 284 284 283 282 282 281 281 281 281 280 279 280 279 279 278 278 278 277 277 277 277 277 276 276 276 277 276 276 275 274 273 273 273 273 272
287 287 287 286 285 285 285 285 284 284 283 282 281 281 281 281 280 280 280 280 279 279 278 277 277 277 276 277 276 276 276 275 275 276 276 276 276 278 277 274 273 273 271
289 289 289 287 286 285 285 285 284 283 283 282 281 281 281 280 280 280 280 279 279 277 277 277 276 275 277 280 282 278 276 276 275 275 275 275 275 277 280 280 280 278 270
291 290 289 288 288 286 286 285 284 284 282 282 281 281 281 281 280 280 280 279 278 278 277 276 275 274 275 282 283 283 276 275 275 275 275 275 275 274 274 276 278 278 278
293 291 291 290 289 288 287 286 284 283 282 282 282 282 281 281 280 279 279 278 278 277 276 275 275 274 275 281 283 283 276 275 275 274 274 274 274 274 273 273 272 273 273
295 294 293 291 289 287 286 284 282 282 282 281 281 282 281 281 279 279 279 278 278 276 275 275 273 274 273 281 283 282 275 275 274 274 274 273 273 276 278 275 271 272 274
291 289 288 286 287 286 285 283 282 282 281 282 282 282 282 282 280 280 279 278 278 277 276 275 274 273 271 279 282 282 275 270 273 273 274 276 275 277 278 275 272 270 272
287 287 288 287 286 285 284 283 282 282 283 283 282 282 282 282 281 281 279 276 276 274 273 273 271 271 271 271 281 283 275 274 271 271 272 273 277 278 279 280 275 273 273
286 286 286 285 285 284 285 283 283 284 284 283 281 280 281 281 280 278 275 274 275 274 271 269 266 269 270 273 278 281 282 279 271 270 272 272 277 278 279 279 279 280 277
283 284 285 283 284 285 286 284 283 280 279 280 280 280 278 278 277 276 273 272 272 273 271 270 271 270 270 270 278 279 281 281 278 275 274 277 278 279 279 280 279 274 264
281 280 283 282 279 280 281 282 280 279 280 280 277 275 276 273 273 274 273 273 271 271 271 270 271 266 267 268 269 270 272 276 278 278 275 277 278 278 276 271 273 269 266
278 280 280 280 278 277 276 275 276 277 278 276 273 273 273 272 270 269 270 271 267 272 269 269 268 264 265 267 272 270 267 268 270 271 260 262 266 269 269 266 266 267 266
276 276 274 275 272 274 274 274 275 276 274 272 271 270 270 268 267 267 264 275 274 277 278 276 269 264 272 275 276 277 278 278 278 273 269 267 266 267 269 268 267 265 264

GFSMW_sfc_thetae_045.txt.gz
Theta_e
295 292 293 296 298 299 299 299 300 300 300 299 299 299 298 297 296 297 300 300 299 297 297 296 296 295 291 289 289 289 293 288 290 290 289 288 286 283 282 282 282 283 284
290 292 292 295 298 299 299 299 300 299 300 300 297 296 295 290 292 293 294 295 293 292 292 292 291 289 288 287 287 287 285 284 284 291 289 285 287 285 283 281 282 280 281
293 292 291 295 297 298 299 300 300 300 300 297 292 290 290 291 291 290 290 289 289 288 289 288 287 285 285 284 284 285 284 282 282 283 290 285 286 282 285 280 279 279 279
294 293 292 294 297 299 299 300 300 300 296 294 292 293 290 287 289 288 288 286 286 286 286 286 285 285 284 283 283 284 283 282 281 281 281 279 281 277 276 277 278 279 279
293 292 293 295 297 298 298 299 299 297 295 294 295 294 291 285 285 286 286 284 284 285 285 284 283 283 283 282 282 282 281 281 280 279 279 278 277 276 276 274 275 278 278
291 292 293 294 296 297 297 297 298 295 294 295 294 292 289 285 284 284 285 283 282 282 282 282 282 281 282 281 281 280 280 280 279 279 278 278 276 275 275 274 274 275 277
289 289 289 292 294 295 296 297 297 294 293 293 292 290 289 288 285 284 283 282 281 280 280 281 281 281 281 280 280 280 279 279 278 278 278 278 278 278 277 276 274 274 276
288 289 290 292 294 295 296 297 296 294 292 291 291 290 289 288 287 285 284 283 282 281 280 280 280 280 280 280 279 279 279 278 278 278 278 278 278 278 278 277 275 273 274
287 287 289 292 294 294 295 297 295 292 291 290 289 288 288 287 285 282 282 281 280 281 279 280 279 279 279 279 279 279 278 278 278 278 278 278 277 278 277 277 277 275 271
286 286 288 290 292 294 294 294 293 291 290 288 287 286 286 285 284 282 281 280 280 280 279 279 279 279 279 279 279 278 277 277 277 277 277 277 277 276 276 276 276 275 273
286 286 287 289 290 291 290 289 290 288 287 286 285 284 283 284 283 282 281 280 280 279 279 279 279 279 279 278 278 277 277 277 277 276 276 276 276 275 274 275 274 274 274
287 286 286 287 287 288 288 290 289 287 287 286 285 284 283 282 281 281 280 280 280 279 279 279 279 279 279 278 277 277 277 276 276 276 276 275 277 274 274 274 273 273 273
286 285 284 285 286 287 288 288 287 286 285 284 284 283 282 281 281 280 280 280 279 279 279 279 279 279 278 278 277 277 277 277 277 276 276 275 275 274 273 273 272 272 274
287 285 285 285 286 287 287 287 287 286 284 284 283 282 281 282 281 280 280 280 279 279 279 279 278 278 278 278 278 277 277 276 277 277 276 275 275 274 274 273 273 273 272
286 286 286 286 286 286 286 287 287 285 284 283 282 282 282 282 281 280 280 280 279 279 279 278 278 278 278 278 278 277 276 276 275 276 276 276 276 278 277 274 273 273 271
288 288 288 287 286 286 286 286 286 284 284 283 283 282 281 281 281 280 280 280 279 279 279 278 278 277 278 282 283 278 276 276 275 274 275 275 275 278 280 281 282 277 270
292 290 289 288 288 287 287 286 286 284 283 282 282 281 281 281 281 280 280 279 279 279 278 278 277 277 277 283 284 283 276 276 275 275 275 275 275 274 274 277 280 280 280
292 292 291 290 289 288 287 286 285 283 283 282 281 281 281 281 280 280 279 279 279 278 278 277 277 277 277 283 284 285 276 275 275 275 275 274 274 274 273 273 272 273 273
294 295 294 292 289 287 286 285 282 282 282 281 281 281 282 281 280 280 279 279 278 278 277 278 277 277 277 282 284 283 277 276 275 275 274 274 274 276 279 275 271 272 273
292 291 289 287 287 285 285 283 281 282 281 282 282 282 282 282 280 280 279 279 279 279 278 278 278 277 277 281 284 283 277 274 275 275 275 277 275 277 279 276 270 269 272
285 285 285 285 284 284 283 281 281 281 283 282 282 281 282 282 281 281 280 279 279 278 277 277 277 276 275 275 283 284 277 277 274 274 273 274 278 280 281 281 275 273 275
284 284 283 281 282 282 282 281 281 281 282 282 281 282 282 282 282 282 280 279 279 278 277 275 274 273 273 275 280 283 284 280 274 273 274 273 278 279 280 279 280 281 281
283 283 282 281 281 280 282 281 282 283 283 283 283 283 283 283 283 282 281 278 278 277 276 274 274 274 272 272 279 280 282 283 280 275 275 278 278 279 279 280 281 279 271
279 279 283 282 281 282 283 284 283 283 284 283 281 281 281 279 279 280 277 277 275 275 275 273 274 271 269 270 270 272 272 277 278 278 276 278 280 279 278 274 276 275 270
280 281 281 279 277 278 278 278 279 281 281 279 276 277 277 276 274 273 274 275 271 276 273 272 270 267 266 268 272 270 265 264 270 270 260 262 267 270 271 272 271 271 269
276 277 276 276 274 275 274 274 275 278 277 274 274 274 273 272 272 271 268 276 276 279 279 277 271 265 273 275 276 278 278 278 278 270 267 269 269 269 269 269 269 266 267

GFSMW_sfc_thetae_048.txt.gz
Theta_e
297 293 293 293 297 298 299 300 300 304 304 303 302 300 301 300 300 301 304 304 304 304 304 302 299 295 294 293 296 294 293 289 288 287 285 284 282 281 281 281 281 282 282
292 292 292 292 296 298 299 299 300 304 304 303 298 296 295 292 295 296 296 298 298 299 299 298 292 290 290 291 292 291 285 284 284 288 286 282 284 283 282 280 281 279 280
295 292 291 292 295 297 299 300 300 301 304 301 293 291 292 293 293 292 293 293 294 294 293 291 289 287 289 291 287 287 287 282 281 283 289 285 285 282 283 279 277 278 278
295 294 292 291 294 297 300 301 300 300 300 296 295 295 291 290 290 291 290 289 290 289 289 288 286 285 285 285 285 284 283 283 280 280 280 279 282 278 276 277 277 277 278
294 293 292 293 295 297 299 300 299 299 298 295 296 296 293 287 286 289 288 287 287 286 286 285 284 283 283 282 282 281 282 281 280 280 279 277 276 276 275 274 275 277 277
292 291 291 291 293 295 297 298 298 298 295 294 294 296 291 287 287 287 287 286 285 283 283 283 282 282 282 281 281 280 281 280 279 279 279 278 276 275 275 273 274 274 276
290 289 289 289 292 294 296 298 298 296 294 294 293 292 291 290 290 287 287 284 283 281 281 281 281 281 280 280 280 280 280 280 280 279 278 278 277 277 277 275 274 274 275
290 289 288 289 292 294 296 298 298 296 293 294 292 291 291 292 291 289 287 286 285 282 281 281 280 280 280 280 279 280 279 280 279 278 278 278 278 278 278 276 275 273 273
291 289 288 289 291 293 295 297 297 296 293 293 291 289 290 290 289 287 286 284 283 282 280 280 279 279 279 279 279 279 278 278 278 278 278 278 277 278 277 277 276 274 271
290 288 287 288 291 293 295 296 297 295 292 292 290 289 289 289 288 286 285 283 283 281 279 279 279 278 279 279 279 278 278 278 277 278 278 277 277 277 277 277 276 275 273
290 289 287 288 290 291 293 295 294 291 290 290 288 286 287 287 286 285 284 283 282 280 280 279 279 279 279 279 278 278 278 278 277 277 277 277 276 275 275 275 274 274 274
290 288 286 287 288 289 290 291 292 291 291 288 286 285 285 285 285 284 283 282 281 280 280 279 279 279 279 279 278 278 278 277 276 277 276 275 277 274 274 274 273 273 273
288 286 285 285 287 288 289 290 291 290 289 286 285 283 283 284 284 283 283 282 280 280 279 279 279 279 279 279 279 279 278 278 278 277 276 275 275 274 273 273 272 273 274
289 286 285 285 286 287 288 289 290 290 287 286 285 283 283 283 284 283 282 281 280 279 279 279 280 279 279 279 279 279 278 278 278 277 276 275 275 275 273 273 273 273 272
288 287 287 286 285 286 287 288 289 288 286 285 284 284 283 283 283 282 281 281 280 280 280 279 279 279 279 279 279 278 278 277 277 276 277 276 276 279 277 274 273 272 271
290 291 289 286 286 286 287 288 288 287 286 285 284 284 282 282 282 281 281 280 279 279 279 278 278 278 279 283 283 279 278 277 276 276 276 276 277 279 281 282 280 276 271
295 292 290 289 289 287 288 287 287 286 284 285 284 283 282 281 281 281 280 280 279 279 278 278 278 278 278 284 285 283 278 277 276 276 276 276 276 275 275 279 282 282 283
293 293 293 291 290 289 287 287 286 284 284 284 283 282 282 282 281 280 280 280 279 279 278 278 278 278 278 284 285 284 278 277 276 276 276 276 275 275 274 274 273 274 274
294 294 293 292 289 287 286 284 283 283 282 282 282 282 282 281 280 280 280 279 279 279 279 279 278 278 278 284 285 284 280 278 276 276 276 275 275 277 280 276 272 272 273
289 289 289 288 287 285 283 283 281 281 281 282 281 281 282 282 281 281 280 280 280 279 279 279 279 279 279 283 285 285 280 278 277 276 276 278 277 279 280 277 272 271 273
285 284 284 284 283 282 282 280 279 280 280 280 280 280 281 282 282 281 280 280 279 279 278 278 278 278 278 279 285 285 280 279 278 277 276 276 280 282 282 282 276 274 275
283 283 281 280 280 280 280 278 278 279 279 279 279 280 281 281 281 281 280 280 279 278 278 277 277 277 277 279 282 285 285 283 278 276 276 275 279 281 281 281 281 282 281
282 281 279 279 279 278 279 278 277 278 279 279 279 281 281 282 282 281 280 279 280 279 278 277 277 276 274 275 281 282 284 285 282 278 277 278 280 281 281 281 281 280 278
278 278 281 279 279 281 283 283 283 283 284 283 283 282 282 282 282 283 282 281 279 278 278 276 277 277 272 272 273 275 277 280 281 279 274 278 280 280 279 274 276 275 274
280 282 281 279 277 277 278 280 281 284 283 282 279 281 281 281 279 278 279 279 276 280 278 278 277 273 271 272 274 273 269 269 271 266 261 264 265 266 266 267 271 272 273
278 278 276 275 273 272 271 271 274 278 278 275 276 276 276 275 275 274 272 278 278 281 280 279 275 269 275 277 279 279 278 277 276 265 262 263 265 268 269 268 268 265 266

GFSMW_sfc_thetae_051.txt.gz
Theta_e
299 297 297 297 297 300 302 303 304 307 309 307 307 305 306 306 307 308 309 310 311 312 312 310 304 304 302 301 299 295 292 289 289 288 286 286 286 285 286 287 287 287 287
295 296 295 295 296 299 301 302 304 306 307 309 305 304 302 301 303 302 303 305 306 306 307 304 301 299 298 298 297 295 292 290 291 291 289 285 287 287 284 285 285 285 287
298 297 293 294 296 297 300 302 303 305 307 307 299 295 295 296 297 297 298 299 301 302 301 300 297 297 300 299 298 295 293 290 288 292 295 289 289 287 288 283 284 284 285
296 296 293 294 294 297 300 303 303 305 306 302 301 300 302 297 298 298 298 295 296 297 298 294 294 296 299 298 296 295 294 292 289 285 284 287 292 287 284 283 283 283 283
295 296 294 295 295 297 299 302 303 303 305 302 304 302 299 296 295 294 294 293 292 294 292 290 291 293 295 296 295 291 290 291 288 286 284 283 283 283 284 280 281 282 283
294 294 294 293 293 295 298 301 301 301 302 302 302 302 301 293 293 291 292 291 289 289 289 287 289 290 291 291 291 289 289 287 286 285 285 284 284 282 282 281 280 281 282
294 294 293 291 292 294 297 299 300 300 299 299 300 300 299 296 295 293 292 289 287 286 286 286 286 286 286 286 286 286 286 285 285 285 284 283 283 282 282 281 279 280 281
293 293 293 292 291 294 296 298 299 300 298 298 298 299 299 296 296 295 294 292 291 289 286 286 285 284 284 284 284 285 284 285 284 284 284 283 283 283 283 281 280 278 278
293 293 292 290 291 293 295 297 299 300 297 297 297 296 296 296 295 294 292 291 289 288 285 285 284 283 283 283 284 283 283 284 283 283 283 282 282 282 282 282 281 281 277
293 293 291 290 290 293 295 296 298 299 297 297 295 295 294 293 293 291 289 286 285 284 283 283 283 282 283 282 283 282 282 283 282 282 282 281 281 281 282 281 281 280 279
293 293 291 289 290 292 293 295 297 297 294 294 293 293 293 291 290 289 289 286 285 283 283 282 282 282 281 281 282 282 281 281 281 281 281 280 280 280 280 280 279 279 279
293 292 290 289 289 290 292 294 295 295 294 293 291 291 290 290 288 289 287 285 284 283 283 281 282 281 281 281 281 280 281 280 280 280 279 279 279 279 278 278 278 278 278
292 290 289 288 288 289 291 292 294 294 293 291 289 288 288 288 288 288 286 284 284 282 282 281 281 281 281 281 281 281 281 281 280 280 279 278 278 277 277 277 277 277 277
292 290 289 288 287 288 289 291 292 293 291 289 289 287 287 287 287 286 285 284 283 282 281 281 281 281 281 281 281 280 280 280 280 279 279 279 278 278 277 276 277 276 276
291 291 291 290 287 287 288 290 291 291 290 289 288 288 287 286 286 285 284 284 282 282 281 281 280 281 280 280 280 280 280 279 279 278 279 279 279 280 279 277 277 276 276
293 293 292 290 289 288 288 289 290 290 289 289 288 288 285 284 285 284 283 282 281 281 280 280 280 280 280 284 284 281 279 279 278 277 278 278 279 280 282 282 281 278 276
296 296 294 292 291 290 289 288 289 289 286 287 287 286 284 283 283 283 282 281 280 280 280 280 279 279 280 285 285 283 279 279 278 278 278 277 277 278 278 282 283 283 282
294 295 296 294 292 290 288 288 287 287 285 286 285 284 283 283 282 281 281 281 280 280 279 279 279 279 280 286 286 284 279 279 278 279 278 277 277 277 276 276 276 277 277
294 294 293 292 292 290 287 285 284 284 284 284 284 283 283 281 281 280 281 281 280 280 280 280 279 279 279 285 286 284 279 279 279 279 277 277 277 279 281 277 275 276 276
288 288 287 287 288 286 284 283 282 281 281 282 282 282 282 281 280 281 280 281 281 280 279 279 279 279 279 285 286 285 282 281 279 278 277 279 278 280 282 280 277 275 276
285 284 283 283 283 283 282 281 280 280 280 280 280 280 281 280 280 280 280 280 279 279 279 279 279 279 280 282 286 287 283 283 281 280 279 278 281 282 282 283 279 277 278
284 282 281 280 280 281 280 279 279 279 278 278 278 278 279 280 281 280 280 280 280 279 278 278 278 278 279 281 284 286 287 285 281 280 279 278 281 283 283 283 283 283 283
281 280 279 279 278 277 278 278 277 277 277 276 276 278 279 280 281 280 280 279 280 279 279 279 279 278 277 278 283 285 286 288 284 281 280 281 282 283 282 283 283 281 280
279 279 280 280 280 280 280 280 281 281 282 281 280 280 280 280 281 281 281 281 281 281 280 279 280 279 276 276 277 280 282 283 284 284 281 281 281 281 280 277 279 277 277
281 282 280 278 276 277 277 279 282 285 284 282 281 282 282 281 281 280 282 282 282 284 282 280 280 279 276 277 279 278 277 277 278 270 270 271 272 273 273 272 273 274 274
279 277 274 273 270 270 269 269 273 281 281 278 279 279 279 279 278 277 275 281 281 283 284 282 280 275 278 280 281 281 279 278 278 269 269 270 270 271 271 270 270 270 269

GFSMW_sfc_thetae_057.txt.gz
Theta_e
312 313 313 313 317 319 319 321 321 320 321 319 318 318 318 322 326 329 331 332 332 331 326 321 316 314 311 307 302 299 297 296 295 292 292 292 292 292 293 293 292 291 291
310 313 313 312 312 315 317 316 315 316 316 318 319 318 318 320 320 321 322 327 325 325 322 319 315 313 311 306 300 298 294 295 294 294 292 287 288 290 291 292 292 290 290
309 311 313 312 312 311 314 314 314 315 315 317 318 317 317 317 315 315 316 317 318 318 317 317 314 311 309 304 300 296 296 293 294 296 297 291 290 288 289 289 290 290 290
310 310 311 313 312 312 313 314 314 314 315 317 316 315 313 310 312 314 314 310 312 312 313 313 311 310 308 303 300 299 300 296 293 297 298 298 296 289 283 287 288 289 289
311 310 310 311 312 313 314 313 313 313 314 315 315 315 312 312 316 315 311 310 308 308 307 308 309 308 308 305 302 299 299 299 297 297 295 295 296 295 292 284 284 287 288
308 308 309 310 310 313 313 313 311 311 312 313 314 314 312 312 314 312 311 307 305 303 305 304 305 306 304 303 301 299 299 298 299 298 296 294 292 289 291 288 285 283 285
306 308 308 308 307 308 308 309 309 309 311 312 313 314 313 313 314 312 311 307 304 303 301 300 302 303 304 303 302 299 299 298 298 297 295 295 294 292 291 289 286 284 285
307 307 308 309 308 306 306 307 306 307 309 310 311 313 312 312 313 312 313 310 308 306 304 301 301 303 304 304 303 301 300 298 298 298 296 293 291 290 289 288 285 283 282
308 308 309 309 308 306 305 306 306 306 308 308 309 311 311 312 312 311 313 313 313 311 309 305 303 301 299 300 301 299 298 297 297 296 294 291 290 289 288 288 288 285 280
306 305 307 306 306 305 305 306 306 306 307 308 308 308 309 311 311 311 310 310 309 308 306 303 299 295 295 296 296 294 296 294 295 292 290 288 288 287 287 287 285 286 286
305 305 305 304 304 303 304 304 305 305 305 306 307 307 308 309 309 308 308 307 307 304 299 297 295 292 291 292 293 291 291 290 290 289 288 286 286 285 285 285 284 283 284
305 305 305 305 304 303 304 304 304 304 305 306 305 305 306 307 306 306 306 306 303 300 298 296 293 292 289 289 290 288 288 288 286 287 286 284 284 284 283 283 283 283 283
305 306 307 306 306 305 304 303 303 304 305 305 304 304 304 304 305 305 305 303 300 295 293 291 289 289 287 285 287 287 286 286 285 286 284 283 283 282 282 282 281 282 280
306 306 306 307 308 307 305 304 303 304 304 304 303 302 302 303 303 304 302 300 297 292 291 288 288 288 286 284 285 284 285 285 285 284 284 283 282 281 281 281 281 281 280
304 305 306 307 308 308 306 303 303 303 303 302 301 301 301 302 302 300 299 297 294 292 290 287 286 285 284 283 283 283 283 283 282 282 282 282 283 284 283 281 280 280 280
304 305 306 306 306 307 306 304 302 302 302 301 300 300 298 297 296 296 293 290 289 288 286 285 284 283 282 286 287 284 282 282 281 280 280 282 283 284 285 284 284 282 281
304 305 305 306 306 307 306 304 303 301 298 297 294 293 293 292 292 291 289 288 287 286 284 284 283 283 282 286 287 286 282 281 281 280 281 282 283 282 282 284 284 284 285
305 306 307 307 308 306 303 302 298 296 294 292 290 290 290 289 289 288 287 287 287 284 284 283 282 282 282 286 287 285 282 281 281 281 281 283 281 281 281 281 281 282 282
306 306 302 300 300 300 298 294 292 292 292 290 290 290 289 287 287 286 286 286 285 284 283 283 282 282 281 286 287 283 282 281 280 282 283 284 282 283 284 280 279 279 280
298 296 295 295 296 294 293 290 289 289 289 289 289 289 288 286 285 286 285 285 285 283 282 281 282 281 282 286 286 283 282 280 280 281 283 284 284 285 286 281 279 278 279
293 292 292 291 289 289 288 287 287 286 286 286 286 285 286 285 285 285 285 284 282 281 281 280 280 281 284 285 287 286 282 282 280 280 282 283 286 286 286 285 282 281 281
293 290 290 288 287 286 287 285 283 284 284 284 283 283 283 284 284 283 283 282 281 280 279 279 279 280 283 284 287 287 284 284 281 281 282 283 285 287 287 286 285 285 284
288 286 286 284 284 284 285 283 282 283 282 281 280 282 283 283 283 283 281 282 281 280 279 279 279 279 280 283 287 288 286 285 283 285 286 286 286 287 286 287 286 283 283
284 283 284 282 281 282 282 282 282 282 281 281 281 282 282 282 283 283 283 283 282 281 281 280 280 280 280 281 283 285 286 286 286 286 285 285 285 285 284 282 283 283 282
284 284 283 281 279 281 280 282 283 283 282 282 282 282 283 283 283 283 284 283 284 285 283 284 284 282 280 281 283 284 284 285 286 284 284 283 282 281 281 280 280 280 278
282 280 279 278 277 278 278 279 281 283 283 282 283 283 282 282 281 281 281 286 286 286 286 287 286 284 285 285 285 284 285 285 286 280 280 279 280 279 278 277 275 275 273

GFSMW_sfc_thetae_060.txt.gz
Theta_e
304 305 305 307 310 315 318 323 323 322 322 321 319 317 318 319 322 328 327 329 331 330 327 322 315 312 308 304 301 299 295 295 294 291 290 288 288 287 287 287 286 287 287
302 304 304 304 308 311 314 317 321 320 320 320 318 315 313 313 316 318 319 323 327 328 326 320 315 312 308 305 301 298 295 293 293 290 289 284 284 285 287 287 287 286 287
301 302 304 304 304 307 309 312 316 318 318 316 313 311 310 310 310 311 316 317 319 321 323 320 316 313 311 305 301 298 297 292 292 292 293 286 284 283 285 285 286 285 285
302 302 302 303 303 305 307 310 310 309 311 311 311 310 309 307 307 308 310 314 315 316 317 318 316 314 311 307 301 299 298 294 292 293 295 295 288 283 278 282 284 285 285
301 301 302 304 304 305 304 306 308 308 308 310 310 310 307 307 306 306 306 311 311 313 314 315 314 312 311 307 302 299 298 296 294 294 294 292 292 289 283 278 280 282 283
300 301 301 302 303 304 305 305 305 306 307 308 310 308 308 305 304 305 307 309 308 309 308 309 311 310 309 306 302 300 299 298 297 296 295 294 292 287 286 280 278 279 281
300 300 299 300 300 302 303 304 304 303 305 306 307 308 307 306 305 306 307 306 306 305 305 306 306 307 308 306 304 301 299 299 298 296 297 296 293 290 289 283 279 279 280
300 300 300 302 300 301 301 302 302 302 303 304 305 306 308 308 308 307 308 308 306 306 306 304 305 305 305 304 303 300 299 299 297 296 295 295 292 289 288 285 281 277 277
299 299 301 301 301 300 300 301 301 301 302 303 303 304 306 306 306 306 306 307 306 306 303 303 302 302 303 303 302 300 298 298 297 297 295 291 288 288 287 286 283 280 276
299 300 300 300 299 299 300 301 301 301 301 302 302 303 304 305 305 305 304 305 306 306 304 301 302 301 301 302 301 299 298 297 297 296 293 288 287 286 285 285 283 283 281
298 298 299 298 298 298 299 299 300 300 300 301 301 301 302 303 304 304 303 303 302 301 300 300 300 297 296 296 298 295 295 295 293 290 289 286 286 285 284 282 282 282 282
299 299 299 299 297 297 298 298 299 299 300 301 301 301 301 301 302 302 302 301 300 297 296 293 291 290 290 292 294 292 294 292 290 288 286 285 285 283 283 282 281 281 282
299 300 300 299 299 298 298 298 299 299 300 300 299 299 299 299 300 300 300 300 298 295 292 291 290 287 289 288 292 291 291 291 290 288 286 285 284 282 282 281 281 281 281
300 299 298 299 300 300 299 298 298 299 299 299 299 297 297 299 299 299 299 298 296 291 289 288 289 287 287 286 288 287 288 288 287 286 286 284 283 282 281 281 280 280 280
299 299 300 300 299 300 300 299 298 298 298 298 298 299 296 297 297 296 294 293 291 290 288 286 285 285 285 285 285 286 285 285 284 283 283 282 282 284 283 281 280 280 279
299 300 300 300 300 300 301 301 299 297 297 297 297 298 294 292 291 291 291 289 288 287 285 284 285 284 284 288 289 286 284 284 283 281 281 282 283 285 286 285 285 283 281
302 301 301 300 300 300 300 299 298 296 293 292 288 287 288 288 289 289 288 286 285 284 283 283 284 283 283 287 288 287 283 283 283 281 282 282 283 283 283 286 286 285 287
301 301 301 300 298 297 296 296 291 290 290 286 285 284 287 285 284 285 285 284 284 282 281 281 283 282 282 287 288 286 282 282 282 282 282 282 282 282 282 282 282 282 283
296 295 294 294 293 293 291 288 287 287 288 287 286 285 283 282 283 281 281 281 281 279 278 283 282 282 282 287 288 284 282 281 281 282 282 283 283 284 285 282 281 281 281
293 292 290 290 291 288 288 286 286 284 285 285 286 285 282 280 280 281 280 279 278 282 282 282 282 282 282 286 287 284 282 280 280 281 282 284 284 286 287 281 280 278 279
291 290 288 288 286 286 284 285 284 281 282 281 281 280 280 279 280 279 278 277 277 281 280 280 280 281 282 285 287 285 282 281 280 280 281 283 287 288 288 285 281 281 282
289 287 286 285 284 282 282 281 280 281 278 278 278 277 276 279 279 277 276 275 275 278 279 279 279 280 281 284 287 286 284 285 281 280 281 282 287 288 288 287 285 286 285
286 284 281 281 281 279 280 279 279 279 278 277 277 277 277 278 277 277 275 276 274 276 278 278 277 278 280 281 286 287 286 286 282 282 283 284 286 287 288 288 288 285 283
283 279 279 281 280 278 280 277 277 279 276 276 276 280 281 277 275 277 278 277 277 276 277 278 278 278 279 279 282 284 285 285 284 284 284 285 285 286 286 283 285 283 282
280 278 278 278 278 280 280 281 279 280 279 276 279 281 281 281 278 279 278 281 281 280 277 277 278 276 275 277 282 284 284 285 285 284 284 283 282 281 280 278 279 279 277
277 276 275 276 274 274 278 279 283 282 282 280 278 280 280 280 280 281 283 286 286 287 287 287 285 283 283 284 285 285 286 286 286 281 279 279 277 277 277 276 273 273 273

GFSMW_sfc_thetae_063.txt.gz
Theta_e
300 300 302 305 311 314 319 322 325 325 326 326 325 320 322 319 320 322 323 328 330 328 326 321 314 312 308 304 303 300 297 294 293 290 287 289 289 286 286 286 286 287 288
298 300 300 301 306 313 317 321 323 323 325 326 326 325 317 314 318 319 320 322 327 328 326 321 315 312 309 305 301 300 296 294 293 290 288 285 286 285 286 285 285 284 285
298 298 299 299 303 307 313 318 321 322 324 322 315 310 311 309 311 312 318 317 319 326 326 322 317 313 310 305 301 299 298 293 293 292 292 286 285 282 286 286 284 283 283
297 298 299 299 299 306 310 314 317 318 320 316 316 314 316 313 315 314 312 313 314 316 323 321 317 314 311 307 303 300 300 297 292 292 293 295 289 285 281 284 283 283 283
297 298 298 300 300 301 304 306 308 310 316 315 314 313 312 307 304 305 307 307 308 311 314 318 317 314 313 310 305 301 301 299 296 294 293 293 290 289 284 280 282 283 282
297 298 299 300 301 300 301 303 305 305 306 309 307 309 309 304 303 302 304 304 305 306 308 312 315 315 313 311 307 303 301 300 299 297 299 295 291 290 284 282 281 282 282
297 298 300 298 299 300 300 301 302 303 304 304 305 306 307 306 305 304 305 303 304 304 309 311 312 313 313 312 308 304 301 300 299 297 298 298 297 292 289 285 282 281 281
296 297 297 298 298 298 300 301 301 301 302 303 304 305 305 306 307 304 306 307 307 306 306 308 310 312 311 309 307 303 302 300 299 299 298 298 297 292 290 286 283 280 280
298 297 298 298 298 298 299 299 300 301 301 301 302 303 305 305 306 304 304 307 306 305 305 307 307 308 307 307 306 304 301 300 299 298 297 297 295 291 290 288 286 285 278
297 297 298 298 298 298 298 299 299 299 300 300 301 302 304 305 306 304 304 303 305 303 302 304 305 305 305 304 303 301 300 299 299 299 296 295 295 293 291 289 287 284 284
296 297 297 297 297 297 298 298 298 299 299 299 300 300 301 302 303 304 304 302 301 303 301 300 302 302 301 301 301 301 300 297 298 297 296 295 296 292 288 286 284 284 284
297 297 297 297 296 296 296 297 297 298 298 299 299 299 299 300 300 301 301 300 301 299 301 299 298 299 300 299 300 298 298 296 295 295 293 293 288 287 286 285 284 284 283
298 298 297 297 297 296 296 297 297 298 298 298 298 298 298 298 299 300 299 299 298 297 294 294 294 292 293 294 297 298 295 295 295 294 292 291 286 285 284 284 284 283 283
298 297 297 297 296 297 297 297 297 297 297 297 297 297 297 298 299 298 298 297 296 295 292 291 291 289 288 290 291 292 293 292 293 292 291 288 286 286 283 283 283 282 281
297 297 298 298 298 298 298 298 297 297 297 296 296 297 296 296 296 294 293 293 292 293 290 288 287 287 286 288 288 288 289 289 289 287 287 286 286 286 285 283 282 281 280
297 298 299 299 299 299 298 298 298 297 296 295 295 296 293 291 291 290 290 290 289 288 287 286 285 284 287 290 290 288 286 286 285 284 283 283 284 285 287 286 286 284 281
296 296 296 297 297 296 296 295 295 293 291 290 288 287 288 288 289 289 288 288 287 285 285 284 284 283 284 289 290 289 284 284 284 283 282 282 283 284 284 286 286 285 286
294 295 294 293 293 293 292 291 288 287 287 286 286 286 285 284 283 283 285 286 284 283 282 281 281 281 282 288 289 288 283 283 283 283 283 283 282 284 283 283 283 283 284
294 293 293 291 291 290 288 286 286 286 286 286 286 286 284 281 281 280 280 281 279 278 278 279 280 283 282 288 288 287 282 282 281 282 283 283 282 285 286 282 281 281 282
292 291 291 289 289 288 286 284 285 283 284 284 285 285 281 278 278 280 278 278 277 279 281 282 283 282 282 287 288 285 282 280 280 281 282 283 283 286 286 283 282 280 281
291 290 289 288 287 285 283 283 283 283 281 280 280 279 279 277 278 276 276 275 278 281 281 280 280 281 282 284 288 285 282 281 280 280 281 283 287 288 288 286 283 283 282
288 288 287 286 285 282 281 282 281 281 277 276 276 275 274 278 276 276 272 273 277 280 279 279 279 280 281 284 288 285 284 284 280 280 281 283 288 288 288 285 286 287 284
288 286 284 284 283 277 278 279 279 277 276 275 277 276 275 276 275 276 275 274 275 279 278 278 278 278 280 282 287 286 286 286 282 282 283 285 287 288 288 288 288 285 284
284 281 279 280 280 276 277 276 276 275 275 279 279 280 279 276 273 276 275 275 274 277 278 277 277 277 277 278 282 284 285 284 283 284 284 284 285 286 285 284 286 285 284
282 278 278 278 277 275 274 274 276 275 275 279 280 280 280 276 275 278 280 280 279 279 276 274 275 274 274 275 283 284 283 283 283 283 283 283 282 282 282 282 281 279 276
280 276 274 273 271 270 271 277 276 276 277 278 280 280 280 279 279 282 283 287 287 286 286 285 281 280 281 283 285 286 286 286 286 283 281 281 281 280 280 279 274 273 273

GFSMW_sfc_thetae_069.txt.gz
Theta_e
297 296 297 300 309 313 317 320 324 326 328 328 326 325 326 325 325 327 328 331 330 326 322 321 317 314 311 310 307 302 299 294 293 291 290 288 289 289 290 292 295 296 294
293 296 296 295 300 309 316 319 322 324 326 328 329 329 328 326 324 321 323 328 330 330 326 323 317 314 312 310 306 301 296 294 294 293 290 288 287 287 289 288 289 293 293
293 293 294 295 294 298 308 316 320 323 326 327 322 313 312 310 312 313 318 320 327 329 328 325 319 315 314 310 306 303 302 295 293 293 294 286 289 283 285 286 287 289 288
292 293 293 294 294 295 301 310 316 321 323 325 321 320 322 321 321 322 315 316 319 324 327 326 322 318 315 313 307 306 305 303 294 294 293 293 291 288 286 283 286 286 287
295 296 296 296 295 295 297 306 312 317 318 321 322 320 319 318 313 310 311 312 312 320 325 326 322 319 317 315 310 306 304 304 302 296 293 294 291 290 287 289 282 285 285
293 294 295 296 297 296 298 303 309 311 313 315 315 317 317 312 306 305 306 307 308 310 316 321 322 320 317 314 311 307 305 304 304 300 301 297 294 292 287 286 284 282 286
294 295 295 295 296 297 297 300 304 304 309 311 311 313 314 310 309 308 308 303 305 304 308 315 318 318 317 315 313 308 306 305 304 303 299 301 300 300 296 293 289 284 286
294 294 295 296 296 296 298 298 300 301 302 305 306 306 307 308 310 307 307 306 307 307 306 307 314 317 316 315 313 310 307 306 305 304 304 301 301 301 298 297 294 286 284
294 295 296 296 297 297 297 298 299 299 299 300 301 301 302 303 305 304 303 305 303 303 303 303 305 307 311 314 313 312 309 306 304 304 303 302 303 302 299 297 297 295 295
294 295 295 296 296 296 296 297 297 297 298 298 298 299 300 301 302 302 301 302 302 301 300 301 302 302 304 305 307 310 309 307 305 304 303 302 302 302 299 297 295 296 297
294 295 295 295 295 295 296 296 296 297 297 297 297 297 297 298 299 299 301 301 300 300 301 301 301 301 301 302 305 306 306 304 303 303 301 300 301 300 298 296 295 293 294
296 295 295 295 296 296 295 295 295 296 296 297 297 297 297 297 297 297 299 299 299 298 300 299 299 300 302 304 303 303 303 303 300 301 299 299 299 297 298 295 293 292 292
293 294 295 295 295 295 295 295 295 295 295 295 295 296 296 296 296 297 297 297 297 296 296 295 296 299 302 302 302 303 302 301 300 300 298 298 296 295 296 294 293 292 291
294 294 294 294 294 295 295 295 295 295 294 294 294 294 294 295 295 295 295 295 295 294 293 293 295 294 298 299 299 299 298 298 298 298 297 296 296 295 294 290 290 288 286
293 293 293 293 293 293 293 293 293 293 291 291 291 291 292 292 292 291 290 290 289 291 292 291 289 290 291 295 294 293 294 294 294 291 291 292 291 291 293 289 287 286 285
292 292 293 293 293 293 293 292 291 290 289 289 288 288 286 286 286 287 287 287 288 288 288 288 287 287 289 292 294 293 290 289 289 289 288 288 286 288 291 292 291 288 286
291 291 291 292 292 291 291 291 291 288 286 285 286 285 285 285 286 285 285 286 287 286 286 286 286 285 286 291 293 292 288 287 287 287 287 285 285 285 286 290 290 289 290
290 291 291 291 291 290 290 289 287 286 286 286 284 282 284 283 283 284 284 284 285 283 282 282 282 281 282 289 291 291 286 285 285 285 285 285 284 284 284 285 284 284 285
291 291 290 289 289 289 289 286 286 285 285 285 285 284 282 282 282 281 281 281 279 278 277 279 276 277 284 287 289 289 285 284 283 284 284 284 283 285 287 284 282 282 283
289 289 288 288 288 289 287 284 285 283 284 284 284 282 281 281 283 282 280 278 275 278 278 280 283 283 284 286 288 287 283 282 281 282 282 283 283 286 287 283 282 281 282
287 287 286 286 287 286 284 283 282 282 283 281 280 278 278 277 278 277 275 273 273 276 275 278 280 281 282 283 288 286 283 282 281 281 281 282 286 287 287 285 283 283 283
286 285 284 284 285 283 280 280 280 282 279 278 277 276 278 275 277 269 271 269 270 272 277 279 279 279 281 284 287 286 284 283 281 280 281 282 286 287 287 284 286 287 284
284 284 281 281 282 278 277 278 280 278 278 276 276 279 280 274 272 269 270 270 268 270 275 278 278 277 279 283 287 286 286 284 281 282 283 285 286 287 287 287 287 283 281
280 278 277 278 278 279 276 276 276 276 273 273 275 279 279 274 270 272 272 275 275 278 278 278 279 279 279 281 283 284 284 283 282 283 283 285 286 287 285 284 285 284 282
278 276 276 277 277 277 277 274 274 279 278 274 274 276 275 272 272 275 275 275 276 280 279 279 279 278 278 281 285 284 282 281 282 282 282 282 281 281 281 281 281 281 281
276 277 275 274 276 274 274 274 269 272 277 277 278 279 279 274 275 279 279 284 284 284 284 283 281 279 282 286 286 285 285 285 285 282 280 280 280 278 277 277 277 276 273

GFSMW_sfc_thetae_072.txt.gz
Theta_e
294 295 295 300 309 313 316 320 322 324 326 327 327 327 326 327 326 326 328 329 325 325 321 320 316 313 311 310 309 304 300 296 295 294 294 292 291 291 293 296 295 296 298
291 293 294 293 299 307 314 317 322 323 326 327 327 325 327 327 326 325 326 329 329 328 323 321 317 315 313 310 308 304 299 297 296 296 291 294 294 291 291 290 293 296 294
290 291 292 292 292 296 305 314 318 322 325 327 320 315 316 315 317 317 322 325 329 329 326 324 321 316 315 312 309 307 305 299 294 295 298 289 291 287 289 290 292 292 294
293 294 293 292 292 293 295 306 312 316 321 322 321 321 324 323 323 322 317 317 321 327 328 326 323 319 317 316 311 309 307 306 297 295 295 295 294 292 292 286 286 290 290
292 293 294 296 296 295 293 298 306 312 316 321 322 320 318 318 314 312 312 312 313 319 324 326 324 320 318 317 314 309 306 307 304 298 294 296 294 291 289 296 292 285 286
293 294 294 295 296 296 298 301 305 308 313 316 316 316 317 314 309 307 308 309 308 310 313 321 324 322 319 318 316 311 308 307 307 304 303 299 294 293 292 290 294 292 288
292 294 294 295 295 296 296 300 304 306 308 311 312 312 313 312 310 309 308 306 305 305 307 313 319 321 320 318 316 312 309 307 306 306 303 303 303 303 297 295 296 289 289
293 294 295 295 294 295 296 297 299 300 303 305 307 307 308 309 308 308 306 306 306 306 306 306 311 317 319 316 315 312 310 309 306 306 306 304 303 303 302 299 297 293 287
293 294 294 294 295 295 295 295 296 297 297 298 299 300 301 302 304 304 303 304 303 303 303 303 304 306 311 315 315 312 309 307 306 305 305 304 305 303 302 301 299 299 295
293 293 293 294 294 294 294 295 296 296 296 296 296 297 298 298 299 300 300 300 301 300 300 300 301 301 302 305 310 311 311 309 307 305 304 304 304 304 303 301 299 298 297
293 293 294 294 294 294 294 294 294 294 295 295 295 295 296 296 297 297 298 298 298 298 298 299 299 299 300 299 302 305 307 307 306 306 303 302 303 303 302 300 299 297 296
292 293 294 294 294 294 294 294 295 295 294 294 294 295 295 295 295 296 297 297 297 297 298 297 297 298 299 299 299 301 303 303 303 303 303 301 301 300 301 300 297 296 296
293 293 293 293 293 293 294 293 294 293 293 293 293 293 294 293 293 294 294 295 295 294 294 294 294 295 297 298 300 303 302 302 303 302 300 301 298 297 297 297 296 295 294
293 292 292 292 292 292 293 293 293 293 291 291 291 291 291 291 291 291 292 291 292 291 292 292 292 292 294 295 299 300 299 299 300 300 300 298 297 296 295 294 294 293 291
291 291 291 291 291 291 291 291 291 291 290 289 289 289 289 289 288 288 288 288 288 289 289 289 288 288 289 292 295 295 296 295 296 294 293 293 293 292 294 292 291 289 288
290 290 290 291 291 291 291 291 290 289 287 287 286 287 286 285 285 285 285 285 286 286 287 287 286 286 289 292 294 294 291 290 290 291 290 289 287 289 292 294 294 290 288
289 289 289 290 290 289 290 289 288 287 285 285 284 283 284 283 284 284 284 284 284 285 285 285 285 284 285 291 292 292 290 289 289 288 287 287 286 286 287 289 292 292 292
289 289 289 289 289 289 288 288 286 286 285 285 283 281 282 282 281 281 281 283 283 283 283 282 282 281 283 289 291 291 288 287 286 286 286 286 285 285 285 285 285 285 285
289 289 288 288 288 287 287 285 285 285 285 285 284 284 282 281 281 281 281 280 280 279 279 279 279 276 280 288 289 289 286 285 284 284 284 284 284 285 287 284 283 283 283
288 288 286 286 286 286 284 284 284 282 283 284 283 282 280 279 279 280 280 277 275 279 279 279 275 276 282 286 287 288 284 283 282 282 282 283 284 285 287 283 283 281 282
285 284 284 285 285 284 283 282 282 281 282 280 279 279 278 277 277 277 276 276 275 276 275 275 274 275 280 282 286 289 283 282 281 281 281 282 286 286 287 285 283 282 284
285 284 284 283 283 282 279 279 279 281 277 277 276 277 275 278 278 272 273 271 270 271 273 273 276 275 276 282 287 286 284 284 281 281 281 282 286 287 287 284 287 287 284
284 283 280 280 281 277 275 277 279 276 275 274 275 275 276 279 274 270 272 271 267 270 272 273 272 277 279 282 287 286 286 284 281 282 283 284 286 287 286 287 287 283 282
278 277 276 277 277 277 275 275 276 275 275 279 278 276 277 279 277 274 273 272 272 272 274 274 274 278 278 281 282 283 282 283 283 284 283 285 286 286 285 284 284 282 281
277 275 275 276 277 276 276 275 274 271 272 275 279 280 280 279 277 276 276 275 275 276 272 273 273 274 276 281 284 282 281 281 283 282 283 282 281 281 280 280 280 280 279
274 273 272 271 272 271 274 274 267 266 267 273 277 279 280 280 280 277 276 281 285 285 284 285 279 278 282 286 286 286 286 285 285 279 279 279 279 278 278 278 275 273 273

GFSMW_sfc_thetae_075.txt.gz
Theta_e
296 297 297 300 311 317 320 323 324 327 328 328 327 326 325 327 328 328 329 327 326 323 321 320 319 315 313 313 313 311 304 304 302 298 302 302 302 301 302 304 304 304 303
293 294 295 296 299 309 317 320 323 325 327 329 329 329 329 329 329 327 327 329 328 325 322 321 319 317 317 312 310 307 303 305 300 302 298 301 304 300 301 302 300 304 304
292 295 295 296 296 297 307 316 321 324 326 328 327 320 322 321 322 323 326 327 329 329 326 323 323 319 317 316 312 310 309 305 298 301 303 294 295 297 298 298 299 299 301
294 294 296 298 298 297 296 307 315 319 324 326 325 325 325 324 326 326 326 326 326 329 328 326 323 320 318 317 315 312 311 309 302 298 301 301 299 298 296 295 292 296 295
294 295 295 297 298 299 299 298 307 314 319 324 326 324 325 325 321 320 320 320 319 324 327 327 325 322 320 319 318 312 310 310 310 303 298 299 300 295 293 298 301 291 291
294 295 296 297 298 299 302 305 307 311 316 320 320 321 321 319 316 315 316 316 316 316 318 322 324 324 321 319 318 315 311 311 309 310 306 302 297 297 296 294 297 299 302
294 295 295 296 296 297 299 303 307 309 313 316 317 317 318 317 316 316 315 313 313 312 314 315 319 321 321 320 318 316 313 310 310 309 307 306 305 305 299 298 298 296 296
294 294 295 295 295 296 297 298 299 300 303 307 309 310 312 313 314 313 313 312 311 312 312 312 313 317 319 320 318 317 313 312 310 309 308 308 306 306 305 302 298 297 299
293 293 294 294 294 295 295 296 297 297 298 299 300 300 301 303 304 305 306 307 307 306 307 307 307 308 310 314 316 315 313 310 309 309 309 308 309 305 306 304 304 301 298
293 294 294 294 294 294 295 296 296 296 296 297 297 297 298 299 300 300 301 301 302 303 303 303 304 305 305 306 309 311 313 311 310 309 308 307 307 307 305 304 303 301 300
293 294 294 294 295 295 295 295 295 295 295 295 296 296 297 297 298 298 298 299 299 299 300 300 301 301 302 303 303 305 308 308 308 308 306 305 306 305 305 303 302 301 299
292 293 294 294 294 294 294 294 294 294 293 294 294 294 294 295 295 295 296 296 297 297 297 297 298 298 299 300 300 301 302 303 303 305 305 304 303 302 304 303 301 299 299
292 292 292 292 293 293 293 293 293 292 292 292 292 293 292 292 292 292 293 293 293 293 294 294 295 295 297 298 299 300 301 302 303 303 302 302 302 299 300 300 299 298 298
292 291 291 291 291 292 292 292 292 292 291 291 291 291 291 290 290 291 291 291 291 291 292 292 292 292 293 294 295 298 299 300 300 301 301 301 298 299 298 296 296 295 294
290 290 290 290 290 291 291 291 291 291 290 289 289 289 289 289 288 288 288 288 288 289 289 289 290 290 290 292 293 293 294 295 295 296 296 297 296 293 296 294 294 292 291
289 290 290 290 290 290 290 290 290 289 288 287 287 287 286 286 286 286 286 286 286 287 287 287 287 288 289 292 292 292 291 291 290 291 292 291 288 290 292 294 295 293 290
289 289 289 289 289 289 289 289 289 288 286 286 285 284 284 283 284 284 284 284 285 285 285 285 286 286 287 289 291 291 289 289 290 289 289 288 288 287 288 290 292 292 293
289 289 289 289 289 288 288 287 286 286 285 284 283 282 283 282 282 281 282 282 283 283 283 283 284 284 284 288 290 290 289 288 289 288 288 287 287 287 285 286 286 286 286
289 289 288 288 287 287 286 285 285 284 284 284 283 283 281 280 280 279 280 281 281 281 280 282 281 281 282 286 288 289 286 286 286 286 286 285 285 286 287 285 284 284 284
288 288 287 286 286 285 284 284 283 282 283 283 282 281 280 278 278 280 279 279 278 279 280 280 280 278 279 283 286 287 285 284 285 284 283 283 285 286 287 285 284 282 283
287 286 285 285 284 284 283 282 281 281 281 279 279 279 278 277 277 278 277 277 276 277 277 278 279 278 279 280 285 287 285 284 283 282 282 283 285 287 287 286 284 284 285
284 285 285 284 283 281 279 278 279 280 277 276 276 276 275 276 278 278 275 274 273 274 275 275 278 279 279 280 285 288 286 285 282 281 282 283 286 287 286 285 287 287 284
283 283 280 279 281 276 276 276 278 277 276 273 276 279 279 275 279 279 276 276 273 274 276 276 277 278 279 280 285 286 285 284 281 282 283 284 287 287 286 287 287 284 283
278 276 275 274 275 275 275 273 275 276 272 272 274 276 278 281 282 281 278 276 276 276 276 276 277 277 277 279 283 284 281 282 283 284 285 286 286 286 284 283 284 283 283
276 274 273 272 273 273 272 270 273 272 271 271 273 275 278 279 280 281 281 278 278 278 279 279 278 278 277 279 283 282 281 282 283 284 284 283 282 282 281 280 280 280 281
272 270 268 268 269 269 269 268 266 268 267 270 272 273 275 276 277 278 279 282 283 284 285 286 285 281 282 284 286 285 285 286 285 282 281 280 280 279 279 276 275 275 275

GFSMW_sfc_thetae_078.txt.gz
Theta_e
305 303 305 307 316 326 329 331 332 334 335 331 328 328 327 329 330 331 332 331 329 331 328 325 323 321 320 320 318 315 314 312 313 310 310 313 315 314 314 315 316 317 317
302 302 303 303 305 313 323 327 330 332 334 334 331 330 329 329 330 330 331 331 330 330 328 323 322 321 319 319 319 317 315 311 310 309 306 305 313 310 313 313 313 314 313
302 303 303 303 303 305 312 320 326 329 332 333 332 329 327 326 329 329 328 329 329 328 329 327 324 322 320 319 319 316 313 316 313 306 306 298 299 310 314 310 311 310 309
302 303 305 306 306 306 304 312 319 325 329 331 329 326 325 324 327 328 329 329 328 328 328 327 326 326 323 321 320 316 316 314 312 307 304 310 306 303 304 310 305 305 305
302 303 304 305 307 309 307 305 313 319 324 328 329 326 324 326 329 331 330 330 331 330 329 328 326 324 323 321 320 317 315 315 314 307 306 304 304 303 299 301 307 305 303
302 303 304 306 308 313 315 312 312 316 321 325 327 327 324 324 324 326 327 328 328 327 326 325 325 325 323 321 320 320 316 314 313 313 310 304 301 299 297 296 301 302 308
303 303 304 304 305 307 311 316 317 314 317 319 321 321 322 323 322 322 322 322 323 324 324 324 322 323 324 322 320 318 317 314 313 312 312 310 309 310 305 302 302 302 305
301 302 302 303 303 304 306 306 306 306 310 315 315 317 316 318 317 317 317 318 319 319 319 318 319 319 320 319 321 319 318 316 314 313 313 312 310 309 308 305 303 301 303
300 300 301 302 302 303 303 304 304 304 304 305 306 306 307 307 307 308 309 310 310 309 309 311 311 313 313 314 315 316 314 315 314 313 313 312 312 310 308 308 306 303 299
300 300 301 301 302 302 302 303 302 302 302 303 304 304 304 305 305 305 305 305 306 306 306 307 307 308 309 309 310 311 313 313 313 312 311 310 310 310 309 306 306 305 303
300 300 301 301 301 302 302 302 301 301 301 302 302 302 301 302 302 302 302 302 303 302 302 303 303 304 305 306 306 307 307 307 309 311 309 308 309 308 308 307 304 304 303
299 300 300 300 300 300 299 299 299 299 299 299 300 299 299 299 299 298 298 299 299 299 299 299 299 300 301 302 302 303 304 304 304 305 304 304 305 305 305 305 303 302 302
298 299 299 299 298 297 297 297 297 296 297 297 298 297 296 296 295 296 296 296 296 296 297 297 296 297 298 298 299 300 300 301 302 302 302 302 301 300 301 301 301 302 301
297 298 297 297 296 297 297 296 296 296 295 296 296 295 294 293 293 294 293 294 294 294 294 295 295 295 295 295 296 297 297 298 299 300 300 300 299 298 299 298 298 297 297
295 295 295 295 295 296 296 296 296 295 295 295 294 293 293 292 292 292 292 292 292 292 292 292 292 293 293 294 294 294 295 294 294 295 296 297 296 293 295 295 296 294 293
294 293 294 294 294 294 294 294 294 293 294 293 292 291 290 289 289 289 289 289 289 289 289 289 290 290 291 292 291 291 292 292 291 291 292 293 289 291 292 293 294 294 291
293 293 293 294 294 294 293 293 293 293 291 291 289 288 287 287 287 287 287 287 287 287 287 287 288 288 289 290 290 290 290 291 291 290 290 290 290 289 290 291 291 291 292
293 293 294 293 293 293 292 291 291 290 289 288 288 287 286 286 285 285 285 286 286 286 285 286 286 287 287 288 289 289 290 291 291 291 290 289 289 290 288 287 287 287 287
294 294 294 293 292 291 290 289 288 288 287 287 286 286 285 284 283 283 284 285 285 285 285 285 285 285 285 287 287 288 288 288 288 289 290 289 287 287 287 286 285 285 285
293 292 291 290 290 288 288 287 286 286 285 284 284 284 284 282 282 283 283 284 283 283 284 284 284 284 283 285 286 287 287 286 287 288 288 285 286 286 287 285 285 284 284
291 291 290 289 287 286 286 285 284 283 283 282 282 282 282 282 282 282 283 282 282 282 282 283 284 284 284 284 285 286 286 286 285 285 285 286 285 286 287 288 285 285 285
289 289 289 287 286 284 283 282 282 282 281 280 279 280 281 282 282 281 283 283 281 281 282 283 284 286 285 284 285 286 286 288 284 283 284 284 285 287 286 285 286 287 285
287 287 286 284 282 280 280 279 280 279 278 276 276 277 279 281 283 282 283 282 281 280 282 283 283 283 284 284 285 285 287 286 283 284 284 284 286 286 286 287 287 284 285
283 282 281 279 278 278 277 276 276 277 274 274 275 277 277 279 281 282 283 283 282 281 281 282 282 282 281 282 284 285 285 283 283 284 286 285 286 286 285 285 285 285 285
279 278 276 275 274 274 274 274 274 273 272 273 275 276 277 278 279 280 281 281 282 282 280 280 281 281 281 283 284 284 284 284 285 285 285 285 284 283 283 282 283 284 284
275 274 271 270 271 270 270 270 270 270 269 271 273 274 273 275 276 276 277 280 281 282 284 284 284 284 286 285 285 286 285 285 285 284 283 283 283 282 281 280 279 279 279

GFSMW_sfc_thetae_084.txt.gz
Theta_e
301 303 307 316 320 323 325 327 329 332 331 330 329 328 328 329 329 330 331 330 330 329 328 326 324 323 318 318 317 316 313 312 313 311 307 310 311 312 312 313 314 314 314
299 301 298 302 304 316 322 324 327 329 331 329 329 329 328 329 330 330 330 330 329 329 327 327 326 322 319 318 317 315 313 313 313 310 305 304 306 312 314 313 312 312 311
298 300 301 299 300 301 306 321 324 326 330 331 328 327 327 326 326 326 327 328 330 329 327 326 326 323 320 319 319 316 315 314 313 312 309 303 301 306 313 311 311 312 311
299 301 301 301 303 303 302 304 318 323 326 329 327 326 324 323 325 326 327 327 328 328 327 326 326 324 322 320 320 319 318 316 313 310 309 311 309 305 306 312 312 309 308
300 302 302 305 306 306 301 301 308 317 323 325 327 325 323 323 323 324 325 325 326 326 327 326 326 325 324 322 321 318 317 317 315 313 308 306 306 306 303 304 308 308 306
299 301 304 308 309 305 302 304 309 313 319 321 323 324 323 322 321 321 321 321 322 323 324 323 323 322 322 321 320 319 318 317 315 315 314 308 307 305 302 303 306 306 309
299 300 301 303 307 309 309 311 312 312 315 316 316 319 321 321 319 317 316 316 316 317 314 314 314 315 316 317 318 317 315 316 315 314 314 314 313 312 310 307 306 304 307
299 299 300 300 301 303 307 311 312 313 314 314 315 317 317 317 315 313 311 308 306 304 304 305 306 306 307 307 308 307 308 310 309 311 310 311 311 312 311 308 306 302 303
297 298 299 300 299 300 301 301 301 302 302 303 303 302 303 303 302 302 302 302 301 302 301 302 301 302 303 304 304 304 304 304 304 304 305 307 310 308 309 310 308 304 298
297 298 298 299 299 299 300 300 300 299 300 300 299 299 299 299 299 298 297 298 298 298 298 298 298 298 299 300 300 300 301 301 301 302 301 302 304 304 306 305 305 306 303
296 297 298 299 299 299 299 298 298 298 297 297 297 296 296 296 296 295 295 295 295 296 295 296 296 296 296 296 296 296 297 297 297 298 298 299 299 300 300 302 302 302 302
297 297 297 298 297 296 295 295 295 295 295 295 294 294 294 294 293 292 293 293 293 294 294 294 294 294 294 295 294 294 294 294 294 295 295 297 299 296 297 298 299 298 299
297 297 297 296 294 294 293 293 293 294 294 294 293 292 292 291 291 291 292 292 291 292 292 292 292 292 293 292 293 293 293 292 293 294 294 294 294 292 292 293 295 295 296
298 297 295 294 293 292 292 292 292 293 293 293 292 290 289 290 290 290 290 290 290 290 289 290 290 290 290 290 291 290 289 289 290 291 292 292 291 290 290 291 290 291 292
297 296 295 293 291 291 292 292 292 292 292 290 289 289 289 289 288 287 287 287 286 287 287 287 286 287 288 289 289 287 287 286 287 287 288 289 289 289 291 289 289 289 288
297 296 294 293 292 292 292 292 291 291 290 288 287 287 286 285 284 284 284 284 284 284 284 284 284 284 287 290 290 289 286 285 284 285 286 287 285 287 290 290 290 290 287
296 295 294 293 292 292 292 290 289 289 286 284 284 284 284 283 283 283 283 283 283 283 283 283 283 283 283 288 289 289 286 284 284 284 285 285 286 286 287 288 290 289 289
296 294 293 292 291 290 289 289 288 286 284 284 283 282 283 281 282 282 282 282 282 282 282 282 281 281 282 287 288 288 285 284 283 284 284 285 285 286 286 286 285 285 285
295 294 293 291 289 288 288 285 284 284 283 282 282 282 281 279 279 277 279 280 280 279 278 280 278 277 281 286 287 287 284 283 284 284 285 285 285 287 288 285 283 283 284
294 292 291 289 288 287 286 284 283 282 281 281 281 280 280 276 276 279 278 278 277 281 281 280 279 278 279 284 287 287 283 283 283 284 285 285 287 287 287 284 283 282 284
290 290 289 287 286 285 283 282 281 280 280 280 279 277 277 275 276 276 275 274 276 278 278 279 279 277 278 280 287 288 285 283 283 283 283 285 286 286 286 288 285 283 286
288 288 285 284 283 283 282 281 279 280 277 275 274 271 269 272 275 269 271 272 273 275 277 274 279 280 277 281 286 287 287 286 283 283 284 284 285 286 287 286 287 287 285
285 285 283 281 280 278 280 280 276 276 273 268 267 267 268 270 270 268 271 270 269 272 276 277 277 278 280 279 284 285 286 286 284 284 284 286 286 287 286 287 286 284 283
284 282 281 278 276 277 275 274 273 271 266 265 266 268 268 269 267 271 273 268 268 273 274 275 275 276 277 278 279 281 283 284 285 284 284 284 286 286 285 284 283 282 280
282 282 281 278 275 273 271 270 270 268 268 267 268 267 268 265 269 271 271 273 272 273 274 275 275 275 275 277 281 282 282 283 285 284 280 282 281 280 280 278 277 279 279
278 277 275 274 271 269 268 266 264 266 264 265 267 266 266 265 268 269 269 274 276 278 278 279 278 277 280 281 282 283 284 285 286 284 277 279 282 280 279 277 277 277 277

GFSMW_sfc_thetae_087.txt.gz
Theta_e
304 308 314 318 319 321 324 328 327 328 328 329 328 328 328 329 329 330 330 330 329 329 327 326 323 322 319 318 317 316 314 313 313 311 307 310 310 310 311 311 311 311 313
296 299 301 305 315 319 321 325 328 328 328 328 329 329 328 328 329 329 329 330 329 329 327 326 325 324 320 317 317 315 313 313 313 312 306 305 309 309 312 311 311 309 312
296 296 299 297 298 301 310 320 325 329 329 328 325 327 327 326 325 325 327 328 329 328 327 326 325 324 321 320 319 317 315 313 313 313 311 305 303 308 314 310 310 310 308
297 298 297 298 299 301 301 302 316 325 329 328 326 326 324 322 324 325 326 327 328 328 327 326 325 324 322 320 319 319 317 315 313 312 311 312 310 306 306 310 309 309 312
299 300 302 304 304 305 300 299 306 317 325 328 328 326 324 322 323 324 325 325 325 325 326 325 325 324 323 321 320 319 317 317 315 312 310 307 307 306 303 303 305 308 308
298 301 304 307 305 301 299 299 309 314 319 326 327 325 322 322 321 320 320 320 321 321 320 321 321 321 320 319 318 317 317 316 315 314 313 311 307 307 305 303 304 304 307
298 299 302 304 305 304 305 308 310 310 313 316 321 322 321 320 318 317 316 315 313 308 307 308 306 306 306 307 307 308 308 308 308 309 311 311 309 310 309 306 304 302 305
297 298 298 299 301 305 306 307 309 309 311 312 311 316 316 314 309 309 306 304 301 300 301 301 301 302 302 302 302 302 302 302 301 302 302 307 308 308 308 306 304 300 299
295 296 297 297 297 298 300 302 303 302 302 302 304 304 303 302 299 299 299 298 298 298 297 297 297 297 298 298 298 298 298 298 298 298 299 299 301 302 304 305 301 300 295
295 295 296 296 296 297 297 298 298 298 298 298 299 298 297 296 296 295 294 294 295 295 294 294 294 294 295 295 295 294 295 295 295 296 295 295 297 298 298 299 300 299 297
294 295 295 296 296 296 296 296 296 296 296 296 295 294 293 293 293 293 292 293 293 293 292 293 292 292 292 292 292 292 293 292 292 292 292 293 294 295 296 296 296 296 297
295 295 295 295 294 294 293 293 294 294 294 294 293 292 292 291 291 290 291 291 290 291 291 290 290 290 290 290 290 290 291 290 290 290 291 291 293 292 293 293 292 293 293
294 295 294 292 292 292 292 292 293 292 292 292 291 290 290 290 289 289 289 289 289 289 288 288 288 288 289 288 289 290 288 288 288 289 288 289 289 288 288 289 289 290 290
295 295 293 293 292 292 291 291 291 292 291 290 289 288 288 288 287 287 287 287 287 287 286 286 286 287 287 287 287 288 287 287 287 287 287 287 287 286 287 287 288 288 287
295 295 293 292 291 291 291 291 291 291 290 288 287 287 286 286 286 285 284 284 284 285 285 285 284 284 285 286 286 286 285 284 285 284 284 285 285 287 288 287 287 286 285
295 295 293 292 291 291 291 291 290 288 287 286 286 285 284 283 283 283 283 283 283 283 283 282 282 282 284 287 288 288 284 284 283 283 283 283 283 286 287 288 288 288 285
296 295 293 292 292 291 291 289 288 286 284 283 283 283 283 282 282 282 282 282 281 281 281 281 281 281 281 286 288 288 284 283 283 282 282 283 284 285 285 287 288 287 287
297 296 293 292 291 290 289 288 286 284 283 283 282 282 282 281 281 281 280 280 280 280 280 280 280 280 281 286 287 287 283 282 282 283 284 284 284 285 285 286 285 285 285
298 296 294 292 290 289 288 285 284 283 283 282 281 281 281 279 278 276 277 279 278 278 277 279 277 275 278 284 286 286 282 282 282 282 284 284 284 286 288 285 283 282 283
297 293 291 289 288 287 286 284 283 282 281 281 280 280 279 275 275 277 275 277 276 278 278 279 276 275 275 282 285 286 282 279 281 282 284 285 285 287 287 284 283 283 283
292 290 289 288 287 286 284 283 281 280 280 279 278 277 276 274 275 274 274 273 271 273 269 274 275 273 275 276 285 286 283 281 281 283 283 284 286 286 287 288 285 284 286
289 289 288 286 285 284 284 281 280 279 277 275 274 272 271 274 274 267 269 267 266 266 270 271 274 274 274 279 283 284 284 285 281 283 283 284 286 286 287 286 287 286 285
287 287 285 282 282 280 282 279 277 276 274 273 272 272 270 270 268 265 266 269 265 265 269 271 272 274 275 274 281 282 283 283 282 283 284 287 287 286 286 285 286 284 280
283 282 282 280 277 276 277 276 275 274 273 272 272 271 270 268 265 270 270 265 264 265 268 269 271 273 274 274 274 277 280 281 282 283 284 285 285 286 285 280 280 278 277
281 281 280 278 275 274 273 273 272 273 271 270 271 269 268 266 267 268 267 269 270 269 265 265 268 272 272 274 279 279 279 280 281 281 282 283 275 279 277 275 276 276 276
281 280 278 276 273 271 269 269 269 270 270 269 268 267 266 265 266 265 265 271 274 275 276 277 276 274 277 278 279 280 281 282 283 281 280 281 278 279 279 275 277 276 277

GFSMW_sfc_thetae_093.txt.gz
Theta_e
315 316 317 317 319 323 325 327 327 327 327 323 326 327 327 328 328 329 328 328 328 328 326 324 323 321 319 319 317 316 314 313 312 309 313 310 312 308 308 309 309 309 310
301 307 310 313 315 320 325 326 327 327 328 327 324 325 327 328 329 329 329 329 329 328 327 326 325 323 321 320 318 316 315 313 313 313 309 305 307 307 310 309 309 307 308
300 300 304 310 313 316 322 325 327 327 328 327 323 324 326 326 326 325 326 328 328 328 326 326 325 324 323 321 320 318 316 314 315 314 311 306 304 306 307 307 305 305 304
295 297 301 304 309 314 317 324 326 327 327 326 325 320 320 321 324 325 326 327 327 327 327 326 325 324 322 321 320 319 318 315 312 311 309 311 310 304 299 303 305 303 304
293 296 296 299 298 301 304 314 321 324 326 326 326 323 321 322 324 324 324 325 324 324 324 324 322 320 318 317 317 315 313 313 311 310 309 305 305 301 302 296 297 301 300
292 294 296 300 301 300 299 299 312 323 325 325 325 325 324 321 321 321 321 320 314 311 310 310 309 308 307 305 303 303 302 302 306 303 304 302 301 299 298 296 295 294 294
294 296 300 302 301 300 299 298 301 315 325 325 324 326 325 322 321 321 318 312 307 305 304 304 303 300 299 299 299 298 297 296 295 295 296 296 296 297 297 294 292 290 290
295 297 300 302 302 302 300 299 303 308 322 325 325 321 322 320 317 315 311 305 303 301 300 298 296 295 295 295 295 294 294 292 291 291 290 292 292 293 293 292 291 286 285
295 298 300 301 301 301 301 302 304 308 319 321 319 314 312 310 305 302 302 300 298 296 294 293 292 292 292 292 292 291 289 289 289 288 288 288 290 290 290 290 290 290 283
295 297 298 299 300 300 300 300 301 305 306 307 308 307 303 302 299 299 296 295 293 292 291 290 290 289 289 290 290 288 288 286 286 287 286 286 287 288 288 288 289 289 288
294 295 295 296 297 297 297 297 296 298 299 300 297 296 297 295 295 294 292 290 290 289 289 288 288 287 287 287 287 287 285 285 284 285 285 284 285 285 285 286 286 286 286
294 294 294 294 294 294 294 294 294 293 293 295 295 294 293 292 291 289 289 289 288 288 287 287 286 286 285 285 285 284 284 283 283 284 283 283 285 283 284 283 284 285 286
292 292 292 292 292 292 292 291 291 290 292 293 292 290 290 289 288 288 287 287 286 286 285 285 284 284 284 284 284 284 284 283 283 283 283 283 282 281 281 283 284 284 285
293 292 291 290 291 291 290 289 289 290 289 290 289 288 287 287 287 286 286 286 285 284 283 283 283 283 282 283 283 284 283 283 283 284 283 282 281 282 283 283 283 284 283
292 292 291 291 290 289 289 289 289 288 289 288 287 286 285 285 285 284 284 283 283 282 282 281 281 281 282 284 283 283 282 282 282 282 282 282 282 284 285 284 284 284 283
293 292 292 292 290 290 290 289 289 288 287 286 285 285 284 283 283 283 282 282 281 281 281 280 280 280 281 286 287 285 282 282 281 281 281 282 281 283 286 286 287 287 284
293 293 293 292 292 292 291 289 288 287 285 284 284 283 283 282 282 282 281 281 280 280 280 280 280 279 279 285 286 287 283 282 281 281 282 282 282 282 283 285 286 285 286
294 294 295 294 293 292 290 289 287 285 284 284 283 282 282 282 281 280 280 279 279 279 279 279 279 278 279 284 286 286 282 281 281 281 281 281 281 281 284 284 283 283 284
297 297 297 296 293 291 291 287 285 284 284 283 283 282 282 280 278 278 277 279 278 277 276 278 274 273 275 283 284 284 280 281 280 281 281 280 280 284 286 283 283 281 284
297 297 296 294 292 291 288 286 285 284 283 283 282 280 280 278 277 278 277 277 276 277 277 276 273 273 271 280 283 283 279 273 278 278 280 281 282 284 285 283 283 282 281
296 295 295 293 292 290 288 286 284 283 283 281 279 278 277 276 276 276 275 274 273 273 271 273 273 273 273 274 281 282 279 277 274 275 277 279 282 284 285 285 284 283 285
293 294 293 291 290 287 287 285 283 282 280 279 277 275 275 277 275 273 272 271 271 272 273 273 273 274 273 276 279 280 281 281 270 273 277 277 282 284 284 284 285 286 284
290 290 291 287 286 286 288 285 283 279 277 276 274 272 274 274 273 272 272 271 272 273 273 273 271 272 274 273 277 278 280 280 277 278 280 282 283 283 282 283 285 284 283
284 283 284 284 283 285 286 286 279 279 277 274 273 273 272 271 273 274 273 273 272 272 272 272 271 270 270 270 272 274 273 276 277 278 277 280 281 282 282 278 280 279 277
280 282 283 283 281 280 280 279 277 277 275 274 273 273 273 273 272 272 272 273 273 273 271 270 269 266 265 269 278 278 275 276 278 279 270 271 278 278 277 275 274 276 275
278 278 277 278 276 276 275 275 276 277 275 273 273 273 272 272 271 271 269 273 274 275 276 276 273 270 275 277 278 279 279 280 280 269 265 270 273 273 274 276 277 271 275

GFSMW_sfc_thetae_096.txt.gz
Theta_e
316 317 317 319 321 323 324 325 324 325 324 321 324 326 326 327 327 327 327 327 326 325 324 323 323 321 319 319 318 316 315 311 314 309 312 310 308 307 308 307 307 307 308
307 312 313 314 317 321 324 325 325 325 326 326 325 327 327 327 329 328 328 328 327 327 327 326 324 323 322 321 319 317 316 314 314 313 310 304 304 306 308 306 306 305 304
305 306 308 312 315 317 321 324 326 326 327 327 323 324 326 326 325 325 326 327 328 327 326 326 325 324 323 322 321 319 316 314 314 314 308 301 299 305 304 303 303 301 300
295 301 303 306 311 315 318 323 325 326 327 327 325 324 324 322 322 325 326 326 327 327 327 326 325 324 322 321 319 318 317 315 310 310 308 308 308 300 296 299 300 299 299
293 295 298 304 307 311 316 321 324 325 326 325 326 324 320 319 322 324 324 324 322 323 323 323 321 318 316 314 314 311 308 306 309 307 302 300 299 297 297 292 291 292 293
291 290 293 297 299 301 305 313 320 323 324 324 325 324 322 321 321 321 321 318 314 311 312 310 309 308 307 306 303 301 300 300 298 297 297 296 295 295 291 289 287 287 288
290 290 293 296 299 299 299 301 312 321 323 324 324 324 323 323 322 321 319 312 308 306 305 305 303 301 300 298 297 295 294 293 292 292 291 291 291 292 291 290 287 285 285
291 292 295 297 299 299 299 298 299 311 323 324 324 323 323 323 321 320 317 312 307 303 301 299 297 295 294 294 293 291 290 289 288 287 288 288 289 289 289 288 287 282 282
293 295 297 299 300 300 300 299 298 302 315 323 324 323 321 317 313 309 307 304 301 298 296 295 291 291 291 291 289 288 287 287 286 286 286 286 287 287 287 287 286 285 280
293 295 297 299 299 300 300 300 300 302 308 316 320 316 313 308 306 304 300 298 296 294 293 289 289 288 289 289 287 286 285 285 285 285 284 284 285 284 285 285 285 285 285
293 294 296 298 298 298 298 299 300 304 305 306 306 305 303 302 301 298 296 295 293 291 289 288 287 286 286 286 285 284 284 283 283 283 283 283 283 282 282 283 283 283 283
293 294 294 294 295 295 296 298 298 301 301 301 301 299 298 297 295 294 293 292 290 288 287 286 285 284 284 284 284 283 283 282 282 282 282 281 283 281 281 283 283 282 282
292 292 292 292 293 294 294 297 296 295 296 297 296 295 294 294 293 291 289 288 286 285 285 284 283 283 283 283 283 283 283 283 283 282 282 281 281 280 280 280 280 281 283
293 292 291 292 291 292 292 292 293 294 294 295 294 293 292 291 290 288 286 285 284 284 283 283 282 282 282 283 283 283 283 282 282 283 282 282 281 280 279 280 280 283 283
292 293 292 290 290 290 290 290 290 292 292 292 291 290 288 288 287 285 284 283 283 282 282 281 281 281 282 284 283 283 282 282 281 282 282 282 281 284 284 283 283 283 283
293 293 291 291 292 292 290 290 288 288 291 290 288 287 286 284 284 283 283 282 282 281 281 281 280 280 282 287 287 284 282 282 281 281 281 281 280 282 285 285 286 285 282
293 292 292 292 293 291 291 289 288 286 285 286 285 284 284 283 283 282 282 281 280 280 280 280 280 279 280 286 287 286 282 282 281 281 282 282 282 281 281 284 286 285 286
293 294 294 294 293 291 290 289 287 285 284 284 283 282 283 282 281 280 280 280 279 279 279 279 279 278 281 285 286 285 282 281 281 281 281 280 281 281 281 283 281 281 283
296 296 296 295 293 291 290 288 285 284 284 283 283 282 282 281 280 279 279 279 279 277 277 278 275 276 277 284 285 283 280 281 280 281 281 280 280 282 284 280 275 278 283
296 296 295 294 292 291 290 287 285 284 284 284 283 282 282 281 280 279 279 278 277 277 277 277 274 274 274 282 283 282 280 276 278 279 279 281 281 283 284 279 275 276 282
294 294 295 294 293 291 288 287 286 285 286 283 281 280 279 279 279 278 277 276 276 274 272 274 274 274 275 277 281 282 280 278 276 275 276 278 281 283 284 285 276 278 284
292 293 293 293 291 289 288 287 286 286 282 281 280 279 278 278 278 276 274 274 273 273 273 273 273 274 275 278 279 280 280 281 274 275 277 276 281 283 284 283 284 285 285
290 290 290 287 286 287 289 287 286 281 281 280 279 277 276 276 276 274 273 273 274 274 273 274 273 274 275 274 277 278 280 280 277 277 278 282 282 282 281 282 283 281 282
282 281 283 283 282 284 286 287 281 281 281 279 276 276 275 273 273 275 275 274 274 274 274 274 274 273 272 272 273 275 275 277 278 279 275 278 280 281 281 276 278 277 275
280 280 281 280 279 280 279 279 280 281 279 277 275 275 274 274 273 274 274 274 274 275 274 274 273 271 271 272 277 277 275 274 275 272 268 269 271 273 273 273 275 273 272
279 278 277 278 276 277 277 277 279 281 278 275 275 274 273 273 273 272 271 276 276 277 278 277 274 273 275 277 278 278 280 280 278 266 265 266 268 268 269 270 274 276 275

GFSMW_sfc_thetae_102.txt.gz
Theta_e
323 327 329 329 331 332 329 327 325 327 327 327 327 328 328 330 331 334 334 332 330 327 326 326 326 324 323 324 323 323 323 324 325 321 320 321 320 320 316 315 309 310 302
320 324 326 329 330 331 330 330 328 326 328 328 330 331 331 332 333 334 333 331 330 328 326 326 326 326 326 324 323 322 322 321 322 318 318 312 314 317 315 314 307 304 301
317 320 323 326 329 330 330 331 331 329 329 329 331 332 333 333 331 332 330 331 329 329 328 327 328 328 328 328 327 324 321 319 321 319 316 308 306 306 312 308 305 299 299
316 318 321 323 326 329 332 331 332 332 331 331 330 330 329 327 329 331 331 331 331 330 329 329 329 330 329 327 325 324 323 321 318 317 314 315 312 301 299 302 302 298 296
312 316 318 322 325 328 330 332 332 332 333 332 331 331 330 331 332 331 329 329 331 333 332 330 329 328 325 324 321 319 318 319 317 314 313 310 308 308 299 294 295 296 296
306 312 317 320 322 325 327 328 330 331 332 332 332 331 330 331 331 329 326 326 328 326 329 325 324 322 319 318 315 314 316 315 313 310 305 302 300 298 295 293 293 292 294
304 305 309 313 316 319 323 325 327 328 331 332 332 332 332 332 331 330 327 323 320 318 320 319 315 313 311 309 308 310 308 307 303 300 298 298 296 296 295 294 292 291 294
304 304 305 306 310 313 317 320 323 325 329 330 331 332 332 332 332 331 331 327 324 320 316 313 309 307 305 303 304 304 301 300 299 297 296 295 294 294 294 293 292 290 292
301 301 302 303 304 305 310 316 319 322 326 328 330 330 331 331 331 331 332 327 323 312 309 307 304 302 300 299 300 299 296 296 296 295 295 294 293 293 293 293 293 291 288
300 299 300 301 302 304 305 309 316 320 324 327 328 328 328 328 329 329 326 321 314 308 303 301 299 297 297 296 297 296 295 294 293 293 293 292 292 291 292 292 292 292 290
300 300 300 301 302 304 305 306 309 313 320 324 326 326 325 325 325 323 320 317 306 305 300 298 296 294 294 295 294 293 293 292 291 291 291 290 290 290 290 291 290 290 289
299 300 301 302 303 304 305 306 306 308 312 320 322 321 321 318 315 314 311 306 304 301 297 295 294 292 293 293 292 290 290 290 290 290 289 288 288 288 289 289 288 289 289
299 299 300 301 302 304 305 305 306 306 307 309 317 314 312 311 311 308 304 302 299 298 293 292 291 292 292 291 291 290 290 290 290 289 288 288 288 288 288 288 288 288 287
298 300 300 300 302 304 305 305 306 308 307 308 310 311 310 310 306 304 301 298 295 294 291 292 290 291 291 290 289 289 289 289 289 289 288 288 288 288 287 287 287 287 287
298 299 299 300 301 303 304 305 306 305 306 306 305 306 304 303 301 297 297 294 292 292 289 289 289 290 289 288 288 288 288 288 287 287 287 287 286 285 287 287 286 286 286
299 299 300 299 299 301 302 302 303 302 303 304 304 303 297 293 293 291 290 288 288 287 287 287 286 288 286 289 289 288 287 287 286 286 286 286 284 285 286 286 285 286 285
299 299 300 300 300 300 301 300 302 301 300 300 294 292 292 291 290 288 286 287 286 286 286 285 286 286 287 289 288 287 286 286 286 285 285 284 284 284 285 285 286 286 286
299 300 301 301 301 301 300 300 298 296 296 295 292 290 290 288 286 286 287 284 284 284 283 285 286 286 287 289 288 286 286 286 285 285 285 284 284 284 284 284 284 284 285
301 301 303 302 302 300 299 297 293 293 292 292 291 290 289 286 285 284 283 283 283 282 283 284 284 285 286 289 288 286 285 283 283 283 283 283 283 283 284 284 283 283 284
299 299 301 300 299 299 298 294 292 292 291 290 289 289 288 287 285 284 283 283 283 283 282 282 284 285 285 288 287 285 284 283 282 282 281 281 282 282 283 284 283 281 282
297 298 298 298 298 297 293 292 292 291 291 289 287 287 287 286 286 284 282 283 282 282 282 281 281 283 285 286 287 285 283 283 282 281 280 281 281 282 283 285 285 283 284
293 296 297 296 295 293 291 290 290 290 287 286 286 285 286 285 284 283 282 282 281 280 280 279 279 280 281 284 285 285 283 283 282 281 281 281 281 283 284 284 284 284 284
290 290 290 291 291 289 290 289 289 287 285 285 285 285 285 284 284 282 281 281 281 280 279 278 278 277 278 281 283 283 283 283 281 281 281 281 283 282 282 282 282 281 281
285 286 287 288 287 287 287 288 286 286 285 285 284 283 282 282 282 282 281 281 280 280 278 278 278 277 277 277 280 280 281 281 280 280 281 280 280 280 281 278 278 279 280
284 285 285 285 284 285 286 286 285 285 285 285 283 282 283 282 281 281 281 281 282 282 280 280 280 278 276 277 279 279 279 279 280 279 278 277 277 276 276 276 275 276 277
282 283 282 282 282 282 283 283 284 285 284 282 281 282 281 281 280 279 278 280 280 281 282 283 282 279 281 281 281 281 282 281 281 277 276 275 274 273 273 273 272 273 274

GFSMW_sfc_thetae_105.txt.gz
Theta_e
321 325 328 331 331 327 323 324 326 328 330 331 329 329 328 329 330 333 334 333 331 330 329 328 328 328 326 326 325 326 325 326 325 321 320 319 320 317 315 313 308 302 303
318 322 326 329 330 329 327 325 325 325 327 328 329 329 329 330 330 333 334 334 332 331 328 329 327 327 324 325 324 323 324 323 323 317 317 312 314 316 312 310 304 301 302
313 318 323 326 330 330 331 329 328 327 327 327 328 328 331 332 330 331 334 334 332 331 330 327 328 327 326 327 326 325 323 321 321 320 316 310 307 306 311 306 303 299 300
311 316 320 324 328 330 334 334 333 330 329 328 327 328 328 327 330 332 334 333 333 331 330 328 327 327 329 327 328 325 324 321 319 318 315 315 311 302 300 303 301 298 297
311 313 318 323 326 331 332 334 334 334 332 330 328 329 329 331 332 332 332 332 333 333 332 331 330 329 328 327 323 323 321 321 320 317 314 310 306 306 300 295 296 297 296
311 312 317 322 325 329 332 333 333 333 334 332 331 330 330 331 331 331 330 331 331 330 331 331 330 328 325 322 320 318 318 318 318 315 311 305 302 300 296 295 295 293 295
312 311 313 318 321 325 328 330 332 330 332 333 332 331 331 332 331 332 331 330 328 327 327 327 323 322 319 315 313 313 313 314 310 305 301 300 298 297 296 294 293 292 294
309 309 311 315 320 322 325 327 328 328 331 332 333 333 333 333 333 333 332 330 328 326 327 324 321 318 313 309 308 307 306 306 303 300 299 296 296 296 295 294 293 291 292
306 308 309 310 315 319 321 324 325 326 328 330 332 333 333 332 332 333 334 331 330 326 323 320 314 310 307 305 304 301 299 301 300 298 297 296 294 295 294 294 294 291 288
309 306 305 306 308 311 315 319 322 323 325 328 330 331 331 332 332 333 332 330 328 321 317 313 310 304 302 301 300 297 298 297 296 296 295 294 293 293 293 293 292 292 290
302 304 305 305 305 307 308 309 314 318 321 323 326 328 329 330 330 330 330 329 325 316 313 309 306 303 298 298 298 296 296 294 293 294 293 292 292 291 291 292 291 291 290
301 302 303 303 304 305 306 306 308 310 315 320 324 326 328 328 327 326 326 323 318 313 312 306 302 298 296 295 295 294 293 292 291 291 291 289 290 289 290 290 290 290 289
302 303 304 303 304 305 306 306 307 307 310 315 321 323 324 324 323 323 319 311 309 306 303 300 299 296 294 293 294 292 292 292 291 290 289 288 288 288 288 289 289 289 287
301 302 303 304 304 304 305 306 307 308 309 309 314 319 318 318 318 315 310 306 303 301 298 299 297 294 293 292 291 291 290 290 290 290 290 288 288 288 288 288 288 287 287
301 302 303 304 304 304 305 306 307 308 309 308 309 312 314 312 307 303 301 299 298 298 296 295 292 291 291 290 289 289 289 289 288 288 287 288 287 288 289 287 287 287 286
301 302 303 303 303 303 304 305 306 307 307 307 307 308 306 301 299 297 294 292 292 291 292 289 289 288 289 291 291 289 288 287 286 286 286 286 284 285 286 286 287 288 285
301 301 302 303 304 304 304 304 305 306 304 303 299 297 294 293 292 291 291 289 288 289 287 288 287 286 286 291 290 289 287 286 286 286 285 284 284 285 285 286 286 286 287
303 302 302 303 305 305 304 304 305 303 299 298 295 293 293 291 288 288 288 288 287 286 286 285 286 286 286 290 289 287 286 286 286 285 285 284 284 284 284 284 284 284 284
302 301 302 303 303 304 303 302 298 297 296 295 294 292 291 288 287 287 286 285 284 284 285 285 286 286 286 290 288 286 285 284 284 284 284 284 283 284 285 284 283 283 284
300 300 301 302 301 302 301 296 295 294 294 294 293 291 290 288 287 286 285 284 285 284 283 284 285 286 286 289 288 286 285 283 282 282 282 282 283 284 284 283 283 281 283
296 298 300 299 299 298 294 293 293 292 293 291 289 288 288 287 288 286 284 284 284 282 283 283 284 285 286 287 288 287 284 283 282 281 281 281 283 284 284 285 283 283 284
294 294 297 296 295 293 292 291 291 291 288 288 287 286 286 286 286 285 284 284 283 283 282 281 281 283 285 286 288 286 285 285 283 282 282 282 283 283 284 284 285 285 284
290 290 290 290 289 288 289 288 289 287 286 285 284 285 286 285 285 284 283 282 283 281 280 280 280 279 281 284 287 286 285 285 283 283 282 283 283 284 284 284 284 282 280
285 286 286 286 285 286 286 286 286 285 285 285 285 285 285 285 285 284 283 283 282 281 280 280 279 279 279 281 283 283 283 283 282 282 282 282 282 281 281 280 281 279 279
284 284 283 283 282 284 284 284 284 285 284 285 284 284 284 284 283 283 283 282 283 283 281 281 281 278 277 279 282 281 281 281 281 281 280 278 278 277 278 278 277 277 276
281 281 280 280 280 281 280 280 282 284 284 284 283 283 283 282 282 281 279 281 282 284 285 284 283 281 282 282 282 282 282 282 282 279 278 277 277 276 276 275 275 274 274

GFSMW_sfc_thetae_108.txt.gz
Theta_e
316 322 323 325 327 320 318 324 326 327 328 327 325 322 323 324 323 324 326 328 328 326 324 323 322 322 321 320 320 319 319 321 321 313 315 312 314 309 306 301 295 297 297
310 317 321 323 326 322 317 319 326 327 328 328 328 325 325 325 325 325 327 329 327 326 324 323 322 322 319 319 319 319 319 319 319 311 310 306 310 308 304 299 294 294 296
305 312 319 322 325 324 320 319 321 324 326 327 327 324 323 322 323 324 326 329 328 326 324 323 323 322 323 322 321 322 320 317 317 315 310 303 301 302 302 296 292 292 293
305 308 316 320 323 325 326 322 321 322 323 324 323 322 321 320 323 325 327 328 329 327 326 324 323 325 324 323 321 323 322 319 315 314 311 308 304 295 294 295 290 291 293
309 305 311 319 323 325 327 327 324 323 323 323 323 322 321 324 325 327 326 329 328 328 327 326 324 323 324 324 323 321 321 320 317 314 308 305 299 299 293 289 289 290 291
312 308 307 315 320 324 326 327 327 326 325 323 323 322 322 323 325 325 326 327 327 327 327 326 324 324 324 322 322 320 319 318 316 312 308 302 297 296 290 289 288 287 289
311 309 304 308 316 320 324 326 327 327 328 326 324 323 324 325 326 326 326 325 325 325 325 326 325 324 324 322 318 316 315 314 312 307 301 296 294 293 292 289 287 286 288
305 306 305 306 311 318 321 325 326 327 328 329 327 326 326 327 328 328 328 327 326 326 326 326 326 324 320 316 314 311 310 308 304 299 295 292 291 291 291 290 288 285 286
301 300 302 304 309 313 318 322 324 326 327 328 329 328 328 327 328 329 329 329 327 325 323 323 320 314 311 311 309 308 303 301 298 296 292 291 290 290 289 290 289 288 284
298 299 299 300 302 309 314 316 320 322 324 326 328 328 329 329 329 328 328 328 327 323 320 320 315 310 309 307 304 300 299 298 296 293 291 289 289 289 289 289 289 288 286
294 296 297 298 299 300 303 308 313 317 319 321 324 326 327 328 328 328 328 328 325 322 319 315 310 308 305 304 300 297 296 295 293 292 290 289 289 288 288 288 288 287 286
295 296 297 298 297 297 298 299 301 307 312 315 318 320 323 323 325 326 327 324 324 318 315 310 307 304 303 301 298 296 295 293 290 290 288 287 289 287 287 287 287 287 286
294 297 297 297 297 298 299 299 300 301 302 306 311 315 317 319 321 322 320 316 312 311 309 308 304 302 301 298 297 295 293 291 290 289 288 287 286 285 285 286 286 286 287
297 296 297 297 298 298 299 299 300 301 302 303 305 309 311 314 317 318 314 310 307 306 304 305 303 302 299 297 295 293 291 290 290 288 287 286 286 285 285 285 285 285 284
296 296 297 297 298 298 299 300 301 301 302 302 302 304 308 312 311 309 306 303 301 303 302 300 299 298 296 295 293 291 290 289 288 287 286 286 286 288 287 286 284 284 283
299 298 297 297 298 298 298 300 301 301 302 301 301 302 303 301 301 298 296 295 294 294 294 292 292 292 293 293 292 290 288 287 287 286 284 284 284 288 290 290 289 287 285
297 297 297 298 297 298 299 298 300 300 299 297 294 294 292 292 293 293 292 291 291 290 290 289 288 288 288 292 292 290 287 286 286 285 284 283 283 284 284 287 288 287 288
298 298 297 296 297 299 299 299 299 298 294 292 291 290 290 289 287 288 289 288 288 288 287 287 287 287 286 292 291 289 286 286 285 285 284 283 282 283 283 283 283 283 284
296 296 296 297 297 297 297 295 292 291 291 290 290 288 288 285 287 286 286 286 286 285 285 285 285 285 287 291 290 287 285 284 284 284 284 283 282 285 286 283 282 282 283
294 294 296 296 295 294 294 290 290 289 289 289 289 288 286 286 287 286 285 283 284 284 284 284 285 285 286 290 289 287 285 284 283 282 282 283 283 286 286 282 282 280 281
291 293 294 293 292 290 288 288 288 288 288 287 285 283 283 284 286 285 283 284 284 283 283 284 285 286 287 288 289 287 284 283 281 281 280 282 285 286 286 285 282 282 283
287 289 290 288 288 285 287 286 285 285 281 281 280 279 280 282 285 285 284 283 283 283 282 283 282 283 285 287 289 288 286 285 281 280 281 281 285 285 285 284 285 286 285
285 285 284 283 283 282 283 283 282 281 279 278 276 277 278 285 285 285 283 282 283 282 281 281 281 281 282 286 288 287 286 286 282 282 282 283 285 285 285 285 285 283 280
281 280 280 279 279 280 281 279 280 278 278 277 277 277 277 277 281 283 283 283 282 282 281 280 280 280 281 283 285 284 283 284 282 283 283 283 283 283 282 281 282 280 278
280 279 278 278 277 278 277 277 279 279 281 276 276 276 277 277 277 280 282 281 282 283 282 282 282 279 279 281 284 283 282 282 281 280 279 278 278 277 278 278 278 277 276
277 276 275 275 274 274 273 273 275 277 276 276 275 275 275 275 275 275 274 283 283 285 286 285 283 281 282 284 285 285 284 284 283 277 276 277 277 277 277 276 275 275 274

GFSMW_sfc_thetae_111.txt.gz
Theta_e
319 323 324 326 326 319 322 324 325 326 327 325 323 320 319 319 320 323 324 325 324 323 322 321 320 320 319 319 318 316 314 315 319 312 314 313 308 305 297 295 295 296 297
309 319 320 324 325 319 320 322 325 326 327 327 325 323 322 321 322 322 323 325 325 324 323 322 320 320 318 317 317 316 315 316 317 310 311 308 310 302 297 293 295 294 296
302 315 318 321 323 322 316 321 323 325 327 327 326 323 321 320 320 320 323 325 326 325 324 322 321 320 319 318 317 316 316 316 317 315 309 302 301 302 298 291 292 292 294
303 306 318 319 321 323 318 318 323 325 326 327 325 324 322 320 322 323 324 325 326 325 324 323 323 321 321 319 319 319 317 318 314 313 312 308 302 297 293 292 289 291 293
308 305 314 319 322 324 321 317 318 324 325 326 325 324 322 322 322 322 321 324 326 326 325 324 323 322 321 321 320 319 319 320 316 313 309 305 300 298 293 289 287 289 291
309 309 307 318 320 323 324 321 317 318 322 323 323 323 322 320 320 321 322 324 326 326 325 325 323 323 322 321 320 320 321 320 317 314 310 304 299 296 290 288 286 285 288
306 309 305 308 317 320 323 324 321 318 319 320 321 322 321 320 321 322 323 324 325 325 325 324 323 322 322 321 321 320 320 318 316 313 310 304 298 296 292 288 286 285 288
301 305 307 305 315 319 321 323 324 323 322 321 320 321 321 321 322 324 325 325 326 326 327 325 325 323 322 321 320 320 319 315 312 309 302 299 295 292 291 289 287 284 285
301 300 303 302 308 315 319 322 323 325 326 325 324 322 322 321 322 324 326 326 327 326 326 324 324 323 321 320 318 318 314 313 308 304 298 295 292 290 290 290 289 287 283
296 298 298 299 301 309 315 319 323 324 325 326 327 326 324 323 323 324 325 326 326 325 323 322 322 322 318 314 312 309 305 304 300 298 294 292 291 289 289 288 288 288 286
292 294 295 296 297 298 307 312 317 321 322 324 326 326 326 326 325 324 325 326 323 323 321 321 320 317 314 311 311 308 303 302 296 293 293 291 290 288 287 287 287 286 286
293 294 295 296 296 296 296 298 301 309 314 317 321 321 324 324 324 325 325 324 322 323 323 320 317 314 311 309 308 304 302 300 295 292 290 290 289 287 287 287 286 286 286
294 295 295 295 295 295 296 297 297 298 300 305 311 313 316 319 322 324 325 323 322 323 320 316 314 310 308 306 306 304 300 298 296 293 291 289 288 286 286 286 286 286 286
296 294 294 295 296 296 296 297 298 299 299 299 300 303 307 311 315 316 314 313 313 312 312 313 312 309 306 305 304 302 298 296 296 293 290 289 288 287 286 285 285 285 283
295 294 295 295 295 296 297 297 298 299 299 300 300 300 302 307 308 309 308 307 306 307 306 304 303 302 302 302 300 298 296 294 291 290 289 288 287 288 288 286 284 285 282
298 296 296 295 296 296 296 297 298 299 299 299 299 299 299 299 299 299 298 298 298 298 298 297 297 298 300 297 296 295 294 290 289 288 286 286 285 288 289 290 289 287 284
296 297 297 296 295 294 296 296 297 298 298 297 294 293 293 295 294 293 294 293 293 292 292 292 291 291 292 294 294 292 291 289 289 287 286 284 285 286 287 290 289 289 289
296 295 295 295 296 296 297 297 297 296 294 292 291 290 290 289 289 291 291 290 290 290 289 289 289 289 288 293 293 290 287 287 287 286 286 285 284 285 285 285 284 284 284
294 295 295 295 294 294 295 293 291 290 290 290 290 289 289 284 288 287 288 289 288 286 286 285 286 286 286 292 292 289 286 285 285 285 285 285 284 286 287 284 283 282 282
292 293 293 292 291 290 291 288 288 288 289 289 289 288 286 283 287 287 285 284 284 285 284 284 285 285 286 291 291 288 285 285 284 284 284 284 284 286 287 283 282 280 281
290 291 290 288 288 287 287 286 285 285 285 285 284 282 282 285 286 286 283 284 284 283 284 284 284 285 286 287 290 289 285 285 284 283 282 283 286 287 287 285 282 282 282
287 288 286 285 284 284 285 284 283 283 280 279 279 278 282 285 285 286 284 284 284 284 283 283 282 283 283 287 290 289 286 286 283 282 282 283 286 287 287 286 285 286 284
283 283 282 281 281 280 281 281 280 280 279 278 276 281 279 285 285 285 284 283 284 283 281 281 281 281 282 285 289 288 287 285 282 282 282 284 286 286 286 287 286 284 283
280 279 279 277 276 277 277 278 279 281 281 275 276 275 275 275 278 283 283 284 283 282 281 281 281 280 281 283 285 285 285 284 283 284 283 284 284 285 284 282 285 283 282
277 277 276 275 274 274 273 272 275 275 276 275 275 275 274 272 273 276 280 281 281 283 282 282 282 280 280 282 285 284 283 283 283 281 281 281 281 280 280 279 279 280 279
275 274 272 272 270 269 269 270 271 273 274 275 275 274 273 272 273 271 272 282 283 285 286 286 283 282 283 285 287 287 286 285 284 279 279 278 278 278 278 278 278 277 277

GFSMW_sfc_thetae_114.txt.gz
Theta_e
318 321 322 323 324 322 323 323 325 328 328 325 320 317 317 317 318 319 322 322 322 321 319 319 319 319 318 318 317 315 313 313 315 314 312 311 307 298 294 295 296 296 294
311 318 320 321 323 320 323 323 325 327 327 328 325 320 319 317 319 320 320 323 322 322 320 319 319 318 317 316 316 314 313 312 315 311 311 307 305 299 294 294 296 293 292
301 312 318 320 323 322 320 322 324 326 327 327 324 320 319 318 317 316 319 322 323 322 322 321 320 319 318 317 315 315 314 312 314 315 309 304 304 300 295 291 292 292 290
307 305 315 319 321 324 321 321 322 324 326 326 325 323 321 319 321 320 321 321 323 323 323 322 321 321 319 318 317 317 315 314 313 313 312 309 304 300 292 290 289 291 289
307 307 308 318 321 324 322 320 321 322 324 325 325 324 322 323 322 322 320 321 323 324 324 323 322 321 319 319 318 315 316 317 314 313 309 306 302 299 295 287 285 288 290
306 308 307 315 319 322 323 318 318 320 323 324 324 324 323 322 320 319 319 321 322 324 324 323 323 322 321 319 318 318 317 317 317 316 310 306 303 299 294 290 284 285 288
304 306 306 307 316 319 321 320 316 317 322 323 323 323 323 322 321 320 320 320 321 322 324 324 322 322 321 320 320 318 318 317 318 316 313 308 304 301 296 291 288 284 286
301 302 306 304 313 317 320 321 317 316 318 321 322 323 323 322 322 320 321 321 322 323 324 324 324 322 321 320 319 319 318 318 318 317 313 309 305 298 295 292 288 283 284
298 300 300 304 305 315 319 321 321 318 317 317 320 320 321 322 321 321 321 322 323 323 324 323 323 323 321 320 319 318 317 317 317 316 312 308 304 298 295 292 291 287 282
295 295 297 298 300 310 317 320 322 322 321 319 319 319 319 320 321 321 320 321 323 323 322 322 322 322 321 320 319 318 319 316 314 312 306 302 296 295 292 290 290 287 285
292 293 294 295 295 298 308 311 315 318 320 323 324 322 321 320 320 320 320 321 323 323 322 322 322 321 321 321 319 319 317 311 312 302 303 302 292 291 288 289 288 286 285
293 294 294 294 295 295 296 302 309 312 315 317 320 321 324 323 321 320 320 321 322 323 323 322 321 320 321 320 316 316 312 309 308 303 298 296 292 289 290 289 288 287 286
293 294 294 294 294 294 295 295 296 297 301 309 312 314 315 320 322 323 322 322 322 322 320 321 320 319 319 316 314 315 311 308 308 305 298 295 293 290 289 288 287 287 287
295 293 293 293 294 295 295 296 296 297 297 297 298 301 305 309 312 314 316 318 320 321 320 320 320 318 315 312 311 310 308 305 304 302 300 298 294 294 290 287 287 286 285
295 293 293 294 294 295 295 296 296 297 298 298 297 297 298 301 304 305 307 308 309 311 311 310 309 309 307 307 307 307 305 303 300 297 296 295 292 292 290 288 286 286 284
295 295 293 294 295 295 295 295 296 297 298 297 297 297 297 297 299 299 297 297 297 298 298 296 296 298 301 299 298 299 299 296 293 291 290 288 286 290 291 289 289 288 285
297 296 296 295 294 295 296 295 295 297 297 295 293 292 292 294 293 293 293 293 293 293 293 293 293 293 293 294 295 293 292 291 290 289 287 286 286 287 288 289 290 289 289
295 295 295 295 295 295 295 296 294 294 293 291 291 290 291 290 290 292 291 289 289 290 290 291 290 290 290 293 294 291 290 288 288 287 287 286 285 286 286 286 286 285 286
294 294 295 295 293 293 293 292 290 289 290 290 289 289 288 284 287 288 289 290 288 287 287 286 287 286 287 291 293 290 286 286 285 285 286 286 286 287 288 285 285 284 283
293 292 292 291 290 289 289 288 287 287 287 287 287 287 285 283 288 287 286 284 285 285 284 285 285 285 286 290 292 289 285 285 284 284 284 285 285 288 289 285 285 282 283
290 289 288 287 286 286 286 285 284 283 284 284 283 282 283 286 286 286 284 284 284 284 285 284 284 285 285 287 291 289 285 285 283 283 283 284 287 288 288 286 284 284 283
287 286 284 282 282 282 284 282 282 281 279 280 281 283 285 285 285 286 285 285 285 284 284 284 283 283 283 286 290 289 287 287 284 283 283 284 287 287 288 286 286 286 284
283 283 281 279 278 280 282 281 281 281 277 278 281 281 283 285 285 285 284 284 284 283 282 282 282 281 282 284 289 289 287 287 283 283 284 286 287 287 287 288 286 284 282
279 279 278 276 274 275 276 276 278 280 274 275 275 275 275 274 281 283 283 284 283 282 281 282 281 281 282 283 284 285 285 285 284 284 284 285 286 286 285 284 286 284 283
277 276 275 273 271 272 272 271 273 274 275 274 274 274 273 271 272 275 277 281 282 283 283 283 283 281 281 283 285 285 284 283 283 282 282 282 282 282 282 281 282 283 282
274 272 271 270 268 268 268 268 268 271 271 274 274 273 273 271 272 271 272 282 284 285 286 286 282 276 283 285 287 287 286 285 285 277 276 278 279 279 279 279 277 279 278

GFSMW_sfc_thetae_117.txt.gz
Theta_e
317 319 320 321 321 321 321 323 323 327 327 321 317 317 318 317 317 319 320 320 320 319 318 317 317 317 317 316 315 314 313 312 312 309 308 306 301 297 297 298 297 294 291
306 314 319 319 320 321 322 322 323 326 328 327 323 321 319 317 319 318 317 320 320 320 320 318 317 317 316 315 314 313 311 311 312 308 308 304 302 297 296 296 296 291 290
301 303 315 319 320 321 321 322 323 324 327 329 324 319 317 316 314 314 317 319 321 321 320 319 319 318 318 317 315 314 312 310 310 311 309 305 302 297 293 294 295 290 288
302 303 308 317 320 321 323 323 323 324 326 328 325 323 320 316 318 318 318 318 320 321 321 320 319 318 318 317 317 316 315 311 309 311 313 309 306 300 292 291 290 291 289
304 305 303 314 319 322 323 323 323 323 325 326 327 324 323 323 320 318 316 317 318 321 321 321 320 319 319 319 318 314 314 315 312 310 307 306 302 301 296 290 288 291 290
305 306 308 308 315 320 323 323 321 321 324 324 325 324 323 322 320 318 318 318 319 320 321 321 321 320 320 319 318 317 315 316 316 314 309 307 304 299 295 292 288 288 290
304 304 305 304 308 315 320 322 319 319 321 322 323 324 323 323 322 320 319 319 318 319 320 321 321 321 321 320 319 317 316 316 315 315 315 312 310 304 299 295 288 287 288
301 302 304 306 306 313 319 321 319 318 319 321 321 322 323 323 323 323 322 320 321 321 322 322 322 321 321 320 319 318 317 317 316 316 316 315 311 304 299 297 291 283 285
302 301 302 302 304 310 316 319 320 317 318 320 321 321 322 322 322 322 322 322 321 321 320 321 321 322 321 320 319 318 318 317 316 317 317 315 314 307 306 301 294 301 284
298 298 298 299 300 305 313 317 320 318 317 318 321 321 322 322 323 322 320 320 321 320 319 320 320 320 321 320 319 319 319 318 317 317 317 316 315 308 304 296 292 296 299
295 295 295 295 295 299 308 313 316 318 317 316 317 319 319 320 321 321 320 320 320 320 319 320 320 320 320 320 320 319 320 318 317 317 315 314 312 306 298 295 294 291 290
291 291 293 294 294 294 301 308 311 313 315 318 317 316 316 316 316 317 318 318 318 318 320 320 319 320 321 321 320 319 318 317 315 314 308 309 305 302 299 296 296 294 290
292 292 292 292 293 294 294 295 298 305 307 311 313 315 316 317 319 318 317 316 317 319 320 320 320 320 320 320 320 320 318 316 315 314 309 308 302 300 299 296 295 292 290
294 292 291 292 293 294 295 295 296 296 297 297 300 305 307 309 311 314 317 318 319 319 318 319 321 320 320 319 319 317 315 314 312 311 310 307 301 301 298 294 292 289 287
294 293 292 293 293 293 294 295 295 296 297 297 296 296 296 298 299 301 302 303 306 310 311 312 311 309 309 309 310 308 307 305 304 299 298 298 295 292 294 291 288 288 286
294 294 292 292 293 294 294 294 294 295 297 297 297 297 296 295 298 298 297 297 297 298 298 297 297 299 301 298 299 299 299 297 295 294 292 291 288 291 291 291 291 290 287
295 295 294 293 293 293 294 294 295 295 296 294 292 291 291 293 293 293 293 292 293 293 293 293 293 293 294 294 296 294 294 293 292 290 288 286 286 287 288 290 290 289 290
294 294 294 294 294 294 293 294 292 292 292 290 290 290 290 289 290 291 291 291 291 290 290 289 290 291 290 293 294 292 291 290 289 289 288 287 286 286 287 287 286 286 287
294 294 294 293 292 291 291 290 288 288 288 288 288 288 287 286 288 288 290 289 287 286 286 285 285 286 286 290 292 291 287 287 286 286 286 286 285 288 289 286 285 285 285
293 292 291 290 289 288 288 287 286 285 285 286 286 286 285 286 287 287 286 285 285 284 285 286 285 285 286 289 291 288 285 285 284 284 284 285 286 289 289 286 285 284 284
290 289 287 285 284 285 285 284 284 283 284 284 284 284 285 286 286 285 284 285 285 285 285 285 285 285 285 286 291 289 285 285 284 284 283 284 288 289 289 288 285 286 285
286 285 283 282 283 284 284 283 282 282 280 282 283 284 285 285 285 286 285 285 285 285 282 283 284 284 284 287 290 289 288 287 285 284 283 284 288 289 290 287 287 287 284
283 283 281 279 279 280 283 281 281 281 278 282 281 282 284 285 285 285 285 284 284 284 282 282 283 282 283 284 289 289 288 288 284 283 283 286 288 288 288 289 287 285 283
280 279 279 277 275 276 276 277 278 277 276 276 276 275 276 280 282 283 283 284 283 283 282 282 282 281 282 283 284 285 285 284 284 284 284 285 286 287 285 284 286 284 283
278 277 276 274 273 273 272 271 274 275 276 275 274 274 273 272 273 274 278 280 281 283 281 282 282 279 280 281 285 285 283 281 282 279 278 281 282 282 281 282 282 282 282
274 273 271 271 269 269 268 268 269 271 272 273 273 273 272 271 271 271 271 282 285 286 286 286 280 272 283 286 286 287 286 285 284 280 279 279 280 279 280 280 280 281 281

GFSMW_sfc_thetae_123.txt.gz
Theta_e
310 316 319 321 322 323 324 326 327 328 327 327 324 324 323 323 322 323 324 323 324 323 322 321 320 319 319 320 320 320 318 316 316 311 308 305 306 306 306 307 307 303 301
304 308 316 319 320 322 323 324 326 328 327 328 327 325 325 325 325 324 322 323 323 323 322 322 320 319 319 319 319 318 317 318 315 312 309 306 306 301 303 303 304 303 299
304 305 305 315 319 321 322 323 324 325 328 328 326 320 320 318 320 320 320 321 322 323 322 322 321 320 319 319 319 319 318 317 316 315 312 305 305 303 299 298 301 302 299
303 304 305 304 315 319 322 323 324 325 326 328 324 323 322 320 321 322 322 321 321 322 322 322 321 321 320 320 320 320 320 320 317 314 313 312 310 306 303 297 296 299 299
304 303 304 305 306 315 320 322 323 324 325 326 327 324 323 324 325 323 320 321 320 322 321 321 321 321 320 321 321 319 319 319 320 317 314 314 311 305 305 307 300 295 298
303 304 306 305 305 308 317 320 321 322 324 324 326 326 324 324 323 321 319 319 320 320 321 320 321 321 321 320 320 321 320 319 319 320 319 315 308 307 305 302 308 301 300
300 302 303 303 305 305 313 317 320 320 323 323 324 325 326 325 324 322 320 319 318 318 319 320 320 320 320 321 320 320 319 319 319 319 318 318 317 315 305 307 307 299 300
299 300 302 304 305 306 307 315 318 319 321 322 323 325 326 326 325 325 323 321 320 320 321 319 320 320 320 320 320 320 319 320 318 318 318 319 318 317 311 310 310 303 298
300 300 301 302 304 304 306 310 315 318 320 321 322 323 325 326 325 326 326 324 323 323 321 320 319 320 320 320 319 319 319 318 319 318 318 317 319 319 316 313 312 309 306
297 298 299 300 301 303 304 306 311 314 318 321 321 322 323 325 326 326 324 325 324 322 319 319 319 319 320 320 319 319 319 318 318 318 317 316 317 318 317 315 313 312 309
294 293 293 294 295 295 297 301 307 313 316 318 319 320 321 323 324 324 324 323 323 321 320 319 319 319 319 319 319 319 319 318 317 318 317 316 317 316 316 316 314 311 309
291 291 292 292 293 294 294 298 303 309 313 315 316 318 319 320 320 321 322 320 320 320 320 319 318 318 318 319 318 318 318 317 316 317 316 315 316 315 316 314 309 308 303
292 292 292 292 292 292 293 294 299 306 309 312 311 312 314 316 318 319 320 319 319 318 318 318 317 317 317 317 318 318 318 317 317 317 316 316 315 312 312 305 301 299 295
291 292 293 293 292 293 293 294 295 296 297 303 308 309 309 311 313 314 314 314 315 316 316 316 317 317 317 317 318 317 317 317 315 312 309 306 305 304 303 300 298 293 291
294 294 293 293 293 293 294 294 294 295 296 296 296 296 296 298 300 302 303 303 304 306 307 311 310 307 304 302 305 307 306 304 303 299 299 297 295 295 298 296 293 292 289
295 293 292 293 293 293 293 293 293 294 296 296 295 295 295 297 299 298 298 297 298 298 297 296 297 297 297 295 296 299 300 298 297 295 293 292 289 293 295 295 294 294 290
297 294 295 294 294 292 292 293 294 294 294 292 290 291 292 292 293 293 292 292 293 293 292 293 293 292 293 295 294 294 296 294 295 292 291 289 289 289 291 293 293 292 293
299 299 295 294 294 292 293 292 292 292 291 290 289 289 291 290 291 291 291 290 290 290 290 289 290 290 290 293 294 291 293 292 291 291 290 290 289 289 288 289 288 287 287
301 302 301 294 292 292 292 290 288 288 288 288 288 288 289 288 289 289 290 289 289 288 287 287 286 286 287 292 292 289 288 287 286 287 288 288 288 289 290 286 285 285 285
299 300 294 291 292 290 289 287 286 287 287 287 287 288 288 288 289 288 287 285 286 285 285 285 285 285 286 291 290 287 286 285 285 286 286 286 287 288 290 286 285 285 285
291 289 289 289 288 287 286 286 286 286 286 286 286 286 286 287 287 286 286 286 286 286 285 285 285 285 286 289 290 289 286 285 284 284 284 285 289 289 290 288 286 286 286
286 285 284 284 284 284 285 284 284 284 283 284 285 285 286 286 286 286 285 286 286 286 285 285 284 285 285 288 290 290 288 287 284 284 284 285 289 290 290 287 288 289 286
283 283 283 282 281 283 285 283 282 282 283 285 285 285 285 285 285 286 285 285 285 285 284 284 283 283 284 286 289 288 287 286 285 285 286 287 289 290 289 289 289 284 285
280 280 280 279 277 277 278 278 279 281 284 283 283 283 283 283 284 284 285 285 284 284 283 283 282 282 283 283 285 285 285 284 284 285 286 287 287 287 285 285 286 284 284
276 276 276 275 273 274 273 274 277 279 279 279 279 280 281 281 281 281 283 282 283 284 282 281 282 281 281 282 286 285 283 282 282 280 281 283 283 282 282 282 282 283 283
274 273 272 271 271 271 270 270 273 276 277 276 277 277 277 277 279 282 283 286 285 285 285 284 281 283 285 287 288 287 286 285 283 276 279 279 279 278 279 279 280 281 280